Wetterdaten: Freitag, 08.03.2013
Datum Zeit Temp. Aussen +5cm Feuchte Auss Luftdruck Regen Sonnenschein Regendauer UV Solar Windben
08.03.2013 00:00 9,5 C 7,9 C 97 % 998,3 hPa 0,0 l/m 0 min 0 min 0,0 UV-I 0 W/m 10,3 km/h (2 Bft)
08.03.2013 00:02 9,4 C 7,9 C 97 % 998,3 hPa 0,0 l/m 0 min 0 min 0,0 UV-I 0 W/m 15,4 km/h (3 Bft)
08.03.2013 00:06 9,4 C 7,9 C 97 % 998,3 hPa 0,0 l/m 0 min 0 min 0,0 UV-I 0 W/m 10,3 km/h (2 Bft)
08.03.2013 00:08 9,4 C 7,9 C 97 % 998,3 hPa 0,0 l/m 0 min 0 min 0,0 UV-I 0 W/m 12,9 km/h (3 Bft)
08.03.2013 00:10 9,4 C 7,3 C 97 % 998,2 hPa 0,0 l/m 0 min 0 min 0,0 UV-I 0 W/m 12,9 km/h (3 Bft)
08.03.2013 00:12 9,3 C 7,3 C 97 % 998,2 hPa 0,0 l/m 0 min 0 min 0,0 UV-I 0 W/m 10,3 km/h (2 Bft)
08.03.2013 00:14 9,3 C 7,3 C 97 % 998,2 hPa 0,0 l/m 0 min 0 min 0,0 UV-I 0 W/m 7,7 km/h (2 Bft)
08.03.2013 00:16 9,3 C 7,3 C 97 % 998,3 hPa 0,0 l/m 0 min 0 min 0,0 UV-I 0 W/m 2,6 km/h (1 Bft)
08.03.2013 00:18 9,3 C 7,3 C 97 % 998,3 hPa 0,0 l/m 0 min 0 min 0,0 UV-I 0 W/m 7,7 km/h (2 Bft)
08.03.2013 00:20 9,3 C 7,3 C 97 % 998,3 hPa 0,0 l/m 0 min 0 min 0,0 UV-I 0 W/m 12,9 km/h (3 Bft)
08.03.2013 00:22 9,3 C 7,3 C 97 % 998,3 hPa 0,0 l/m 0 min 0 min 0,0 UV-I 0 W/m 10,3 km/h (2 Bft)
08.03.2013 00:24 9,3 C 7,3 C 97 % 998,3 hPa 0,0 l/m 0 min 0 min 0,0 UV-I 0 W/m 7,7 km/h (2 Bft)
08.03.2013 00:26 9,2 C 7,3 C 97 % 998,3 hPa 0,0 l/m 0 min 0 min 0,0 UV-I 0 W/m 10,3 km/h (2 Bft)
08.03.2013 00:28 9,2 C 7,3 C 97 % 998,3 hPa 0,0 l/m 0 min 0 min 0,0 UV-I 0 W/m 7,7 km/h (2 Bft)
08.03.2013 00:30 9,2 C 7,3 C 97 % 998,2 hPa 0,0 l/m 0 min 0 min 0,0 UV-I 0 W/m 15,4 km/h (3 Bft)
08.03.2013 00:32 9,2 C 7,3 C 97 % 998,2 hPa 0,0 l/m 0 min 0 min 0,0 UV-I 0 W/m 12,9 km/h (3 Bft)
08.03.2013 00:34 9,2 C 7,3 C 97 % 998,2 hPa 0,0 l/m 0 min 0 min 0,0 UV-I 0 W/m 10,3 km/h (2 Bft)
08.03.2013 00:36 9,2 C 7,3 C 97 % 998,2 hPa 0,0 l/m 0 min 0 min 0,0 UV-I 0 W/m 2,6 km/h (1 Bft)
08.03.2013 00:38 9,1 C 7,3 C 97 % 998,2 hPa 0,0 l/m 0 min 0 min 0,0 UV-I 0 W/m 10,3 km/h (2 Bft)
08.03.2013 00:40 9,1 C 7,3 C 97 % 998,2 hPa 0,0 l/m 0 min 0 min 0,0 UV-I 0 W/m 10,3 km/h (2 Bft)
08.03.2013 00:42 9,1 C 7,3 C 97 % 998,2 hPa 0,0 l/m 0 min 0 min 0,0 UV-I 0 W/m 7,7 km/h (2 Bft)
08.03.2013 00:44 9,1 C 7,3 C 97 % 998,2 hPa 0,0 l/m 0 min 0 min 0,0 UV-I 0 W/m 10,3 km/h (2 Bft)
08.03.2013 00:46 9,1 C 7,3 C 97 % 998,2 hPa 0,0 l/m 0 min 0 min 0,0 UV-I 0 W/m 5,1 km/h (1 Bft)
08.03.2013 00:48 9,1 C 7,3 C 97 % 998,1 hPa 0,0 l/m 0 min 0 min 0,0 UV-I 0 W/m 2,6 km/h (1 Bft)
08.03.2013 00:50 9,1 C 7,3 C 97 % 998,2 hPa 0,0 l/m 0 min 0 min 0,0 UV-I 0 W/m 2,6 km/h (1 Bft)
08.03.2013 00:52 9,1 C 7,3 C 97 % 998,2 hPa 0,0 l/m 0 min 0 min 0,0 UV-I 0 W/m 2,6 km/h (1 Bft)
08.03.2013 00:54 9,1 C 7,3 C 97 % 998,2 hPa 0,0 l/m 0 min 0 min 0,0 UV-I 0 W/m 0,0 km/h (0 Bft)
08.03.2013 00:56 9,1 C 7,3 C 97 % 998,1 hPa 0,0 l/m 0 min 0 min 0,0 UV-I 0 W/m 7,7 km/h (2 Bft)
08.03.2013 00:58 9,0 C 7,3 C 97 % 998,1 hPa 0,0 l/m 0 min 0 min 0,0 UV-I 0 W/m 7,7 km/h (2 Bft)
08.03.2013 01:00 9,0 C 7,3 C 97 % 998,2 hPa 0,0 l/m 0 min 0 min 0,0 UV-I 0 W/m 12,9 km/h (3 Bft)
08.03.2013 01:02 9,1 C 7,3 C 97 % 998,1 hPa 0,0 l/m 0 min 0 min 0,0 UV-I 0 W/m 10,3 km/h (2 Bft)
08.03.2013 01:04 9,0 C 7,3 C 97 % 998,1 hPa 0,0 l/m 0 min 0 min 0,0 UV-I 0 W/m 10,3 km/h (2 Bft)
08.03.2013 01:06 9,0 C 7,3 C 97 % 998,1 hPa 0,0 l/m 0 min 0 min 0,0 UV-I 0 W/m 7,7 km/h (2 Bft)
08.03.2013 01:08 9,0 C 7,3 C 97 % 998,2 hPa 0,0 l/m 0 min 0 min 0,0 UV-I 0 W/m 10,3 km/h (2 Bft)
08.03.2013 01:10 9,0 C 7,3 C 97 % 998,2 hPa 0,0 l/m 0 min 0 min 0,0 UV-I 0 W/m 10,3 km/h (2 Bft)
08.03.2013 01:12 9,0 C 7,3 C 97 % 998,1 hPa 0,0 l/m 0 min 0 min 0,0 UV-I 0 W/m 10,3 km/h (2 Bft)
08.03.2013 01:14 9,0 C 7,3 C 97 % 998,2 hPa 0,0 l/m 0 min 0 min 0,0 UV-I 0 W/m 10,3 km/h (2 Bft)
08.03.2013 01:16 9,0 C 7,3 C 97 % 998,2 hPa 0,0 l/m 0 min 0 min 0,0 UV-I 0 W/m 12,9 km/h (3 Bft)
08.03.2013 01:18 9,0 C 7,3 C 97 % 998,2 hPa 0,0 l/m 0 min 0 min 0,0 UV-I 0 W/m 10,3 km/h (2 Bft)
08.03.2013 01:20 9,0 C 7,3 C 97 % 998,1 hPa 0,0 l/m 0 min 0 min 0,0 UV-I 0 W/m 10,3 km/h (2 Bft)
08.03.2013 01:22 9,0 C 7,3 C 97 % 998,1 hPa 0,0 l/m 0 min 0 min 0,0 UV-I 0 W/m 10,3 km/h (2 Bft)
08.03.2013 01:24 9,0 C 7,3 C 97 % 998,1 hPa 0,0 l/m 0 min 0 min 0,0 UV-I 0 W/m 7,7 km/h (2 Bft)
08.03.2013 01:26 9,0 C 7,3 C 97 % 998,1 hPa 0,0 l/m 0 min 0 min 0,0 UV-I 0 W/m 7,7 km/h (2 Bft)
08.03.2013 01:28 9,0 C 7,3 C 97 % 998,1 hPa 0,0 l/m 0 min 0 min 0,0 UV-I 0 W/m 5,1 km/h (1 Bft)
08.03.2013 01:30 9,0 C 7,3 C 97 % 998,1 hPa 0,0 l/m 0 min 0 min 0,0 UV-I 0 W/m 7,7 km/h (2 Bft)
08.03.2013 01:32 9,0 C 7,3 C 97 % 998,2 hPa 0,0 l/m 0 min 0 min 0,0 UV-I 0 W/m 18,0 km/h (3 Bft)
08.03.2013 01:34 9,0 C 7,3 C 97 % 998,2 hPa 0,0 l/m 0 min 0 min 0,0 UV-I 0 W/m 7,7 km/h (2 Bft)
08.03.2013 01:36 9,0 C 7,3 C 97 % 998,1 hPa 0,0 l/m 0 min 0 min 0,0 UV-I 0 W/m 10,3 km/h (2 Bft)
08.03.2013 01:38 8,9 C 7,3 C 97 % 998,2 hPa 0,0 l/m 0 min 0 min 0,0 UV-I 0 W/m 7,7 km/h (2 Bft)
08.03.2013 01:40 9,0 C 7,3 C 97 % 998,2 hPa 0,0 l/m 0 min 0 min 0,0 UV-I 0 W/m 10,3 km/h (2 Bft)
08.03.2013 01:42 8,9 C 7,3 C 97 % 998,3 hPa 0,0 l/m 0 min 0 min 0,0 UV-I 0 W/m 10,3 km/h (2 Bft)
08.03.2013 01:44 8,9 C 7,3 C 97 % 998,3 hPa 0,0 l/m 0 min 0 min 0,0 UV-I 0 W/m 7,7 km/h (2 Bft)
08.03.2013 01:46 8,9 C 7,3 C 97 % 998,3 hPa 0,0 l/m 0 min 0 min 0,0 UV-I 0 W/m 7,7 km/h (2 Bft)
08.03.2013 01:48 8,9 C 7,3 C 97 % 998,2 hPa 0,0 l/m 0 min 0 min 0,0 UV-I 0 W/m 7,7 km/h (2 Bft)
08.03.2013 01:50 8,9 C 7,3 C 97 % 998,2 hPa 0,0 l/m 0 min 0 min 0,0 UV-I 0 W/m 2,6 km/h (1 Bft)
08.03.2013 01:52 8,9 C 7,3 C 97 % 998,2 hPa 0,0 l/m 0 min 0 min 0,0 UV-I 0 W/m 5,1 km/h (1 Bft)
08.03.2013 01:54 8,9 C 7,3 C 97 % 998,1 hPa 0,0 l/m 0 min 0 min 0,0 UV-I 0 W/m 10,3 km/h (2 Bft)
08.03.2013 01:56 8,9 C 7,3 C 97 % 998,2 hPa 0,0 l/m 0 min 0 min 0,0 UV-I 0 W/m 10,3 km/h (2 Bft)
08.03.2013 01:58 8,9 C 7,3 C 97 % 998,2 hPa 0,0 l/m 0 min 0 min 0,0 UV-I 0 W/m 7,7 km/h (2 Bft)
08.03.2013 02:00 8,9 C 7,3 C 97 % 998,3 hPa 0,0 l/m 0 min 0 min 0,0 UV-I 0 W/m 7,7 km/h (2 Bft)
08.03.2013 02:02 8,9 C 6,8 C 97 % 998,2 hPa 0,0 l/m 0 min 0 min 0,0 UV-I 0 W/m 12,9 km/h (3 Bft)
08.03.2013 02:04 8,9 C 6,8 C 97 % 998,2 hPa 0,0 l/m 0 min 0 min 0,0 UV-I 0 W/m 10,3 km/h (2 Bft)
08.03.2013 02:06 8,9 C 6,8 C 97 % 998,2 hPa 0,0 l/m 0 min 0 min 0,0 UV-I 0 W/m 7,7 km/h (2 Bft)
08.03.2013 02:08 8,9 C 7,3 C 97 % 998,2 hPa 0,0 l/m 0 min 0 min 0,0 UV-I 0 W/m 12,9 km/h (3 Bft)
08.03.2013 02:10 8,9 C 7,3 C 97 % 998,2 hPa 0,0 l/m 0 min 0 min 0,0 UV-I 0 W/m 15,4 km/h (3 Bft)
08.03.2013 02:12 8,9 C 7,3 C 97 % 998,2 hPa 0,0 l/m 0 min 0 min 0,0 UV-I 0 W/m 10,3 km/h (2 Bft)
08.03.2013 02:14 8,9 C 7,3 C 97 % 998,2 hPa 0,0 l/m 0 min 0 min 0,0 UV-I 0 W/m 10,3 km/h (2 Bft)
08.03.2013 02:16 8,9 C 7,3 C 97 % 998,3 hPa 0,0 l/m 0 min 0 min 0,0 UV-I 0 W/m 12,9 km/h (3 Bft)
08.03.2013 02:18 8,9 C 7,3 C 97 % 998,3 hPa 0,0 l/m 0 min 0 min 0,0 UV-I 0 W/m 10,3 km/h (2 Bft)
08.03.2013 02:20 8,9 C 7,3 C 97 % 998,2 hPa 0,0 l/m 0 min 0 min 0,0 UV-I 0 W/m 12,9 km/h (3 Bft)
08.03.2013 02:22 8,9 C 7,3 C 97 % 998,2 hPa 0,0 l/m 0 min 0 min 0,0 UV-I 0 W/m 10,3 km/h (2 Bft)
08.03.2013 02:24 8,9 C 7,3 C 96 % 998,2 hPa 0,0 l/m 0 min 0 min 0,0 UV-I 0 W/m 12,9 km/h (3 Bft)
08.03.2013 02:26 8,9 C 7,3 C 96 % 998,2 hPa 0,0 l/m 0 min 0 min 0,0 UV-I 0 W/m 7,7 km/h (2 Bft)
08.03.2013 02:28 8,9 C 7,3 C 96 % 998,3 hPa 0,0 l/m 0 min 0 min 0,0 UV-I 0 W/m 10,3 km/h (2 Bft)
08.03.2013 02:30 8,9 C 7,3 C 96 % 998,2 hPa 0,0 l/m 0 min 0 min 0,0 UV-I 0 W/m 10,3 km/h (2 Bft)
08.03.2013 02:32 8,9 C 7,3 C 96 % 998,3 hPa 0,0 l/m 0 min 0 min 0,0 UV-I 0 W/m 7,7 km/h (2 Bft)
08.03.2013 02:34 8,9 C 7,3 C 96 % 998,3 hPa 0,0 l/m 0 min 0 min 0,0 UV-I 0 W/m 7,7 km/h (2 Bft)
08.03.2013 02:36 8,9 C 7,3 C 96 % 998,2 hPa 0,0 l/m 0 min 0 min 0,0 UV-I 0 W/m 7,7 km/h (2 Bft)
08.03.2013 02:38 8,9 C 7,3 C 96 % 998,3 hPa 0,0 l/m 0 min 0 min 0,0 UV-I 0 W/m 12,9 km/h (3 Bft)
08.03.2013 02:40 8,9 C 7,3 C 96 % 998,2 hPa 0,0 l/m 0 min 2 min 0,0 UV-I 0 W/m 5,1 km/h (1 Bft)
08.03.2013 02:42 8,9 C 7,3 C 96 % 998,2 hPa 0,0 l/m 0 min 2 min 0,0 UV-I 0 W/m 7,7 km/h (2 Bft)
08.03.2013 02:44 8,9 C 7,3 C 96 % 998,2 hPa 0,0 l/m 0 min 0 min 0,0 UV-I 0 W/m 18,0 km/h (3 Bft)
08.03.2013 02:46 8,9 C 7,3 C 96 % 998,2 hPa 0,0 l/m 0 min 0 min 0,0 UV-I 0 W/m 10,3 km/h (2 Bft)
08.03.2013 02:48 8,9 C 7,3 C 96 % 998,1 hPa 0,0 l/m 0 min 0 min 0,0 UV-I 0 W/m 15,4 km/h (3 Bft)
08.03.2013 02:50 8,9 C 7,3 C 96 % 998,1 hPa 0,0 l/m 0 min 0 min 0,0 UV-I 0 W/m 12,9 km/h (3 Bft)
08.03.2013 02:52 8,9 C 7,3 C 96 % 998,2 hPa 0,0 l/m 0 min 0 min 0,0 UV-I 0 W/m 10,3 km/h (2 Bft)
08.03.2013 02:54 8,9 C 7,3 C 96 % 998,1 hPa 0,0 l/m 0 min 0 min 0,0 UV-I 0 W/m 10,3 km/h (2 Bft)
08.03.2013 02:56 8,9 C 7,3 C 96 % 998,1 hPa 0,0 l/m 0 min 0 min 0,0 UV-I 0 W/m 12,9 km/h (3 Bft)
08.03.2013 02:58 9,0 C 7,3 C 96 % 998,1 hPa 0,0 l/m 0 min 0 min 0,0 UV-I 0 W/m 10,3 km/h (2 Bft)
08.03.2013 03:00 9,0 C 7,3 C 96 % 998,1 hPa 0,0 l/m 0 min 0 min 0,0 UV-I 0 W/m 12,9 km/h (3 Bft)
08.03.2013 03:02 9,0 C 7,3 C 96 % 998,1 hPa 0,0 l/m 0 min 0 min 0,0 UV-I 0 W/m 7,7 km/h (2 Bft)
08.03.2013 03:05 9,0 C 7,3 C 96 % 998,1 hPa 0,0 l/m 0 min 0 min 0,0 UV-I 0 W/m 5,1 km/h (1 Bft)
08.03.2013 03:06 9,0 C 7,3 C 96 % 998,1 hPa 0,0 l/m 0 min 0 min 0,0 UV-I 0 W/m 5,1 km/h (1 Bft)
08.03.2013 03:08 9,0 C 7,3 C 100 % 998,1 hPa 0,0 l/m 0 min 0 min 0,0 UV-I 0 W/m 10,3 km/h (2 Bft)
08.03.2013 03:10 9,0 C 7,3 C 96 % 998,1 hPa 0,0 l/m 0 min 0 min 0,0 UV-I 0 W/m 5,1 km/h (1 Bft)
08.03.2013 03:12 9,0 C 7,3 C 96 % 998,1 hPa 0,0 l/m 0 min 0 min 0,0 UV-I 0 W/m 10,3 km/h (2 Bft)
08.03.2013 03:14 9,0 C 7,3 C 96 % 998,1 hPa 0,0 l/m 0 min 0 min 0,0 UV-I 0 W/m 7,7 km/h (2 Bft)
08.03.2013 03:16 9,0 C 7,3 C 96 % 998,1 hPa 0,0 l/m 0 min 0 min 0,0 UV-I 0 W/m 10,3 km/h (2 Bft)
08.03.2013 03:18 9,1 C 7,3 C 96 % 998,0 hPa 0,0 l/m 0 min 0 min 0,0 UV-I 0 W/m 7,7 km/h (2 Bft)
08.03.2013 03:20 9,1 C 7,3 C 96 % 998,0 hPa 0,0 l/m 0 min 0 min 0,0 UV-I 0 W/m 5,1 km/h (1 Bft)
08.03.2013 03:22 9,1 C 7,3 C 96 % 998,0 hPa 0,0 l/m 0 min 0 min 0,0 UV-I 0 W/m 7,7 km/h (2 Bft)
08.03.2013 03:24 9,1 C 7,3 C 96 % 998,0 hPa 0,0 l/m 0 min 0 min 0,0 UV-I 0 W/m 7,7 km/h (2 Bft)
08.03.2013 03:26 9,1 C 7,3 C 96 % 998,1 hPa 0,0 l/m 0 min 0 min 0,0 UV-I 0 W/m 18,0 km/h (3 Bft)
08.03.2013 03:28 9,1 C 7,3 C 96 % 998,0 hPa 0,0 l/m 0 min 0 min 0,0 UV-I 0 W/m 12,9 km/h (3 Bft)
08.03.2013 03:30 9,1 C 7,3 C 96 % 998,0 hPa 0,0 l/m 0 min 0 min 0,0 UV-I 0 W/m 5,1 km/h (1 Bft)
08.03.2013 03:32 9,1 C 7,3 C 96 % 998,0 hPa 0,0 l/m 0 min 0 min 0,0 UV-I 0 W/m 5,1 km/h (1 Bft)
08.03.2013 03:34 9,1 C 7,3 C 96 % 998,1 hPa 0,0 l/m 0 min 0 min 0,0 UV-I 0 W/m 5,1 km/h (1 Bft)
08.03.2013 03:36 9,1 C 7,3 C 96 % 998,0 hPa 0,0 l/m 0 min 0 min 0,0 UV-I 0 W/m 12,9 km/h (3 Bft)
08.03.2013 03:38 9,1 C 7,3 C 96 % 998,0 hPa 0,0 l/m 0 min 0 min 0,0 UV-I 0 W/m 7,7 km/h (2 Bft)
08.03.2013 03:40 9,1 C 7,3 C 96 % 998,0 hPa 0,0 l/m 0 min 0 min 0,0 UV-I 0 W/m 7,7 km/h (2 Bft)
08.03.2013 03:42 9,1 C 7,3 C 96 % 998,0 hPa 0,0 l/m 0 min 0 min 0,0 UV-I 0 W/m 7,7 km/h (2 Bft)
08.03.2013 03:44 9,1 C 7,3 C 96 % 998,0 hPa 0,0 l/m 0 min 0 min 0,0 UV-I 0 W/m 5,1 km/h (1 Bft)
08.03.2013 03:46 9,1 C 7,3 C 96 % 997,9 hPa 0,0 l/m 0 min 0 min 0,0 UV-I 0 W/m 12,9 km/h (3 Bft)
08.03.2013 03:48 9,1 C 7,3 C 96 % 997,9 hPa 0,0 l/m 0 min 0 min 0,0 UV-I 0 W/m 7,7 km/h (2 Bft)
08.03.2013 03:50 9,1 C 7,3 C 96 % 997,9 hPa 0,0 l/m 0 min 0 min 0,0 UV-I 0 W/m 12,9 km/h (3 Bft)
08.03.2013 03:52 9,1 C 7,3 C 96 % 997,9 hPa 0,0 l/m 0 min 0 min 0,0 UV-I 0 W/m 7,7 km/h (2 Bft)
08.03.2013 03:54 9,1 C 7,3 C 96 % 997,9 hPa 0,0 l/m 0 min 0 min 0,0 UV-I 0 W/m 10,3 km/h (2 Bft)
08.03.2013 03:56 9,1 C 7,3 C 96 % 997,9 hPa 0,0 l/m 0 min 0 min 0,0 UV-I 0 W/m 10,3 km/h (2 Bft)
08.03.2013 03:58 9,1 C 7,3 C 96 % 997,8 hPa 0,0 l/m 0 min 0 min 0,0 UV-I 0 W/m 12,9 km/h (3 Bft)
08.03.2013 04:00 9,1 C 7,3 C 96 % 997,8 hPa 0,0 l/m 0 min 0 min 0,0 UV-I 0 W/m 10,3 km/h (2 Bft)
08.03.2013 04:05 9,1 C 7,3 C 95 % 997,8 hPa 0,0 l/m 0 min 0 min 0,0 UV-I 0 W/m 12,9 km/h (3 Bft)
08.03.2013 04:06 9,1 C 7,3 C 95 % 997,8 hPa 0,0 l/m 0 min 0 min 0,0 UV-I 0 W/m 0,0 km/h (0 Bft)
08.03.2013 04:08 9,1 C 7,3 C 95 % 997,8 hPa 0,0 l/m 0 min 0 min 0,0 UV-I 0 W/m 10,3 km/h (2 Bft)
08.03.2013 04:10 9,1 C 7,3 C 95 % 997,8 hPa 0,0 l/m 0 min 0 min 0,0 UV-I 0 W/m 10,3 km/h (2 Bft)
08.03.2013 04:12 9,2 C 7,3 C 95 % 997,8 hPa 0,0 l/m 0 min 0 min 0,0 UV-I 0 W/m 5,1 km/h (1 Bft)
08.03.2013 04:14 9,2 C 7,3 C 95 % 997,8 hPa 0,0 l/m 0 min 0 min 0,0 UV-I 0 W/m 7,7 km/h (2 Bft)
08.03.2013 04:16 9,2 C 7,3 C 95 % 997,8 hPa 0,0 l/m 0 min 0 min 0,0 UV-I 0 W/m 5,1 km/h (1 Bft)
08.03.2013 04:18 9,2 C 7,3 C 95 % 997,7 hPa 0,0 l/m 0 min 0 min 0,0 UV-I 0 W/m 5,1 km/h (1 Bft)
08.03.2013 04:20 9,2 C 7,3 C 95 % 997,7 hPa 0,0 l/m 0 min 0 min 0,0 UV-I 0 W/m 7,7 km/h (2 Bft)
08.03.2013 04:22 9,2 C 7,3 C 95 % 997,7 hPa 0,0 l/m 0 min 0 min 0,0 UV-I 0 W/m 7,7 km/h (2 Bft)
08.03.2013 04:24 9,2 C 7,3 C 95 % 997,7 hPa 0,0 l/m 0 min 0 min 0,0 UV-I 0 W/m 0,0 km/h (0 Bft)
08.03.2013 04:26 9,2 C 7,3 C 95 % 997,7 hPa 0,0 l/m 0 min 0 min 0,0 UV-I 0 W/m 2,6 km/h (1 Bft)
08.03.2013 04:28 9,2 C 7,3 C 95 % 997,7 hPa 0,0 l/m 0 min 0 min 0,0 UV-I 0 W/m 5,1 km/h (1 Bft)
08.03.2013 04:30 9,2 C 7,3 C 95 % 997,7 hPa 0,0 l/m 0 min 0 min 0,0 UV-I 0 W/m 2,6 km/h (1 Bft)
08.03.2013 04:32 9,2 C 7,3 C 95 % 997,7 hPa 0,0 l/m 0 min 0 min 0,0 UV-I 0 W/m 5,1 km/h (1 Bft)
08.03.2013 04:34 9,2 C 6,8 C 95 % 997,7 hPa 0,0 l/m 0 min 0 min 0,0 UV-I 0 W/m 0,0 km/h (0 Bft)
08.03.2013 04:36 9,2 C 6,8 C 95 % 997,7 hPa 0,0 l/m 0 min 0 min 0,0 UV-I 0 W/m 2,6 km/h (1 Bft)
08.03.2013 04:38 9,2 C 6,8 C 95 % 997,7 hPa 0,0 l/m 0 min 0 min 0,0 UV-I 0 W/m 2,6 km/h (1 Bft)
08.03.2013 04:40 9,1 C 7,3 C 95 % 997,6 hPa 0,0 l/m 0 min 0 min 0,0 UV-I 0 W/m 12,9 km/h (3 Bft)
08.03.2013 04:42 9,1 C 7,3 C 95 % 997,8 hPa 0,0 l/m 0 min 0 min 0,0 UV-I 0 W/m 2,6 km/h (1 Bft)
08.03.2013 04:44 9,1 C 7,3 C 95 % 997,7 hPa 0,0 l/m 0 min 0 min 0,0 UV-I 0 W/m 7,7 km/h (2 Bft)
08.03.2013 04:46 9,1 C 7,3 C 95 % 997,7 hPa 0,0 l/m 0 min 0 min 0,0 UV-I 0 W/m 10,3 km/h (2 Bft)
08.03.2013 04:48 9,1 C 6,8 C 95 % 997,7 hPa 0,0 l/m 0 min 0 min 0,0 UV-I 0 W/m 0,0 km/h (0 Bft)
08.03.2013 04:50 9,1 C 6,8 C 95 % 997,8 hPa 0,0 l/m 0 min 0 min 0,0 UV-I 0 W/m 0,0 km/h (0 Bft)
08.03.2013 04:52 9,1 C 7,3 C 95 % 997,8 hPa 0,0 l/m 0 min 0 min 0,0 UV-I 0 W/m 2,6 km/h (1 Bft)
08.03.2013 04:54 9,1 C 7,3 C 95 % 997,8 hPa 0,0 l/m 0 min 0 min 0,0 UV-I 0 W/m 2,6 km/h (1 Bft)
08.03.2013 04:56 9,1 C 7,3 C 95 % 997,8 hPa 0,0 l/m 0 min 0 min 0,0 UV-I 0 W/m 10,3 km/h (2 Bft)
08.03.2013 04:58 9,1 C 7,3 C 94 % 997,7 hPa 0,0 l/m 0 min 0 min 0,0 UV-I 0 W/m 5,1 km/h (1 Bft)
08.03.2013 05:00 9,1 C 7,3 C 94 % 997,7 hPa 0,0 l/m 0 min 0 min 0,0 UV-I 0 W/m 7,7 km/h (2 Bft)
08.03.2013 05:02 9,1 C 6,8 C 94 % 997,7 hPa 0,0 l/m 0 min 0 min 0,0 UV-I 0 W/m 2,6 km/h (1 Bft)
08.03.2013 05:04 9,1 C 6,8 C 94 % 997,7 hPa 0,0 l/m 0 min 0 min 0,0 UV-I 0 W/m 0,0 km/h (0 Bft)
08.03.2013 05:06 9,1 C 6,8 C 94 % 997,7 hPa 0,0 l/m 0 min 0 min 0,0 UV-I 0 W/m 7,7 km/h (2 Bft)
08.03.2013 05:08 9,1 C 6,8 C 94 % 997,7 hPa 0,0 l/m 0 min 0 min 0,0 UV-I 0 W/m 0,0 km/h (0 Bft)
08.03.2013 05:10 9,1 C 6,8 C 94 % 997,7 hPa 0,0 l/m 0 min 0 min 0,0 UV-I 0 W/m 5,1 km/h (1 Bft)
08.03.2013 05:12 9,1 C 6,8 C 94 % 997,7 hPa 0,0 l/m 0 min 0 min 0,0 UV-I 0 W/m 5,1 km/h (1 Bft)
08.03.2013 05:14 9,1 C 7,3 C 94 % 997,6 hPa 0,0 l/m 0 min 0 min 0,0 UV-I 0 W/m 5,1 km/h (1 Bft)
08.03.2013 05:16 9,1 C 7,3 C 94 % 997,7 hPa 0,0 l/m 0 min 0 min 0,0 UV-I 0 W/m 5,1 km/h (1 Bft)
08.03.2013 05:18 9,0 C 7,3 C 94 % 997,7 hPa 0,0 l/m 0 min 0 min 0,0 UV-I 0 W/m 0,0 km/h (0 Bft)
08.03.2013 05:20 9,1 C 7,3 C 94 % 997,7 hPa 0,0 l/m 0 min 0 min 0,0 UV-I 0 W/m 5,1 km/h (1 Bft)
08.03.2013 05:22 9,1 C 7,3 C 94 % 997,7 hPa 0,0 l/m 0 min 0 min 0,0 UV-I 0 W/m 5,1 km/h (1 Bft)
08.03.2013 05:24 9,1 C 7,3 C 94 % 997,7 hPa 0,0 l/m 0 min 0 min 0,0 UV-I 0 W/m 7,7 km/h (2 Bft)
08.03.2013 05:26 9,1 C 7,3 C 94 % 997,7 hPa 0,0 l/m 0 min 0 min 0,0 UV-I 0 W/m 5,1 km/h (1 Bft)
08.03.2013 05:28 9,0 C 7,3 C 94 % 997,7 hPa 0,0 l/m 0 min 0 min 0,0 UV-I 0 W/m 5,1 km/h (1 Bft)
08.03.2013 05:30 9,0 C 7,3 C 94 % 997,7 hPa 0,0 l/m 0 min 0 min 0,0 UV-I 0 W/m 0,0 km/h (0 Bft)
08.03.2013 05:32 9,0 C 7,3 C 94 % 997,7 hPa 0,0 l/m 0 min 0 min 0,0 UV-I 0 W/m 0,0 km/h (0 Bft)
08.03.2013 05:34 9,0 C 7,3 C 94 % 997,7 hPa 0,0 l/m 0 min 0 min 0,0 UV-I 0 W/m 0,0 km/h (0 Bft)
08.03.2013 05:36 9,0 C 7,3 C 94 % 997,8 hPa 0,0 l/m 0 min 0 min 0,0 UV-I 0 W/m 2,6 km/h (1 Bft)
08.03.2013 05:38 9,0 C 6,8 C 94 % 997,8 hPa 0,0 l/m 0 min 0 min 0,0 UV-I 0 W/m 7,7 km/h (2 Bft)
08.03.2013 05:40 9,0 C 6,8 C 94 % 997,8 hPa 0,0 l/m 0 min 0 min 0,0 UV-I 0 W/m 7,7 km/h (2 Bft)
08.03.2013 05:42 9,0 C 6,8 C 94 % 997,8 hPa 0,0 l/m 0 min 0 min 0,0 UV-I 0 W/m 5,1 km/h (1 Bft)
08.03.2013 05:44 9,0 C 6,8 C 94 % 997,8 hPa 0,0 l/m 0 min 0 min 0,0 UV-I 0 W/m 10,3 km/h (2 Bft)
08.03.2013 05:46 9,0 C 7,3 C 94 % 997,8 hPa 0,0 l/m 0 min 0 min 0,0 UV-I 0 W/m 5,1 km/h (1 Bft)
08.03.2013 05:48 9,0 C 6,8 C 94 % 997,7 hPa 0,0 l/m 0 min 0 min 0,0 UV-I 0 W/m 2,6 km/h (1 Bft)
08.03.2013 05:50 9,0 C 6,8 C 94 % 997,8 hPa 0,0 l/m 0 min 0 min 0,0 UV-I 0 W/m 10,3 km/h (2 Bft)
08.03.2013 05:52 8,9 C 6,8 C 94 % 997,7 hPa 0,0 l/m 0 min 0 min 0,0 UV-I 0 W/m 5,1 km/h (1 Bft)
08.03.2013 05:54 8,9 C 6,8 C 95 % 997,7 hPa 0,0 l/m 0 min 0 min 0,0 UV-I 0 W/m 10,3 km/h (2 Bft)
08.03.2013 05:56 8,9 C 6,8 C 95 % 997,7 hPa 0,0 l/m 0 min 0 min 0,0 UV-I 0 W/m 10,3 km/h (2 Bft)
08.03.2013 05:58 8,9 C 6,8 C 95 % 997,7 hPa 0,0 l/m 0 min 0 min 0,0 UV-I 0 W/m 7,7 km/h (2 Bft)
08.03.2013 06:00 8,9 C 6,8 C 95 % 997,7 hPa 0,0 l/m 0 min 0 min 0,0 UV-I 0 W/m 12,9 km/h (3 Bft)
08.03.2013 06:02 8,9 C 6,8 C 95 % 997,8 hPa 0,0 l/m 0 min 0 min 0,0 UV-I 0 W/m 12,9 km/h (3 Bft)
08.03.2013 06:06 8,9 C 6,8 C 95 % 997,8 hPa 0,0 l/m 0 min 0 min 0,0 UV-I 0 W/m 7,7 km/h (2 Bft)
08.03.2013 06:08 8,9 C 6,8 C 95 % 997,8 hPa 0,0 l/m 0 min 0 min 0,0 UV-I 0 W/m 2,6 km/h (1 Bft)
08.03.2013 06:10 8,9 C 6,8 C 95 % 997,8 hPa 0,0 l/m 0 min 0 min 0,0 UV-I 0 W/m 0,0 km/h (0 Bft)
08.03.2013 06:12 8,9 C 6,8 C 95 % 997,9 hPa 0,0 l/m 0 min 0 min 0,0 UV-I 0 W/m 0,0 km/h (0 Bft)
08.03.2013 06:14 8,9 C 6,8 C 95 % 997,9 hPa 0,0 l/m 0 min 0 min 0,0 UV-I 0 W/m 2,6 km/h (1 Bft)
08.03.2013 06:16 8,9 C 6,8 C 95 % 997,8 hPa 0,0 l/m 0 min 0 min 0,0 UV-I 0 W/m 5,1 km/h (1 Bft)
08.03.2013 06:18 8,8 C 6,8 C 95 % 997,9 hPa 0,0 l/m 0 min 0 min 0,0 UV-I 0 W/m 2,6 km/h (1 Bft)
08.03.2013 06:20 8,9 C 6,8 C 95 % 997,9 hPa 0,0 l/m 0 min 0 min 0,0 UV-I 0 W/m 0,0 km/h (0 Bft)
08.03.2013 06:22 8,8 C 6,8 C 95 % 997,8 hPa 0,0 l/m 0 min 0 min 0,0 UV-I 0 W/m 5,1 km/h (1 Bft)
08.03.2013 06:24 8,8 C 6,8 C 95 % 997,9 hPa 0,0 l/m 0 min 0 min 0,0 UV-I 0 W/m 2,6 km/h (1 Bft)
08.03.2013 06:26 8,8 C 6,8 C 95 % 997,8 hPa 0,0 l/m 0 min 0 min 0,0 UV-I 0 W/m 0,0 km/h (0 Bft)
08.03.2013 06:28 8,8 C 6,8 C 95 % 997,8 hPa 0,0 l/m 0 min 0 min 0,0 UV-I 0 W/m 0,0 km/h (0 Bft)
08.03.2013 06:30 8,8 C 6,8 C 95 % 997,8 hPa 0,0 l/m 0 min 0 min 0,0 UV-I 0 W/m 0,0 km/h (0 Bft)
08.03.2013 06:32 8,8 C 6,8 C 95 % 997,7 hPa 0,0 l/m 0 min 0 min 0,0 UV-I 0 W/m 2,6 km/h (1 Bft)
08.03.2013 06:34 8,8 C 6,8 C 95 % 997,7 hPa 0,0 l/m 0 min 0 min 0,0 UV-I 0 W/m 0,0 km/h (0 Bft)
08.03.2013 06:36 8,8 C 6,8 C 95 % 997,6 hPa 0,0 l/m 0 min 0 min 0,0 UV-I 0 W/m 5,1 km/h (1 Bft)
08.03.2013 06:38 8,8 C 6,8 C 95 % 997,7 hPa 0,0 l/m 0 min 0 min 0,0 UV-I 0 W/m 2,6 km/h (1 Bft)
08.03.2013 06:40 8,7 C 6,8 C 95 % 997,7 hPa 0,0 l/m 0 min 0 min 0,0 UV-I 0 W/m 5,1 km/h (1 Bft)
08.03.2013 06:42 8,7 C 6,8 C 95 % 997,7 hPa 0,0 l/m 0 min 0 min 0,0 UV-I 0 W/m 2,6 km/h (1 Bft)
08.03.2013 06:44 8,7 C 6,8 C 95 % 997,6 hPa 0,0 l/m 0 min 0 min 0,0 UV-I 0 W/m 5,1 km/h (1 Bft)
08.03.2013 06:46 8,7 C 6,8 C 95 % 997,6 hPa 0,0 l/m 0 min 0 min 0,0 UV-I 0 W/m 2,6 km/h (1 Bft)
08.03.2013 06:48 8,7 C 6,8 C 95 % 997,6 hPa 0,0 l/m 0 min 0 min 0,0 UV-I 0 W/m 7,7 km/h (2 Bft)
08.03.2013 06:50 8,7 C 6,8 C 95 % 997,6 hPa 0,0 l/m 0 min 0 min 0,0 UV-I 0 W/m 7,7 km/h (2 Bft)
08.03.2013 06:52 8,7 C 6,8 C 95 % 997,6 hPa 0,0 l/m 0 min 0 min 0,0 UV-I 0 W/m 5,1 km/h (1 Bft)
08.03.2013 06:54 8,7 C 6,8 C 95 % 997,6 hPa 0,0 l/m 0 min 0 min 0,0 UV-I 0 W/m 10,3 km/h (2 Bft)
08.03.2013 06:56 8,6 C 6,2 C 95 % 997,6 hPa 0,0 l/m 0 min 0 min 0,0 UV-I 0 W/m 5,1 km/h (1 Bft)
08.03.2013 06:58 8,6 C 6,2 C 95 % 997,6 hPa 0,0 l/m 0 min 0 min 0,0 UV-I 0 W/m 0,0 km/h (0 Bft)
08.03.2013 07:00 8,6 C 6,8 C 96 % 997,6 hPa 0,0 l/m 0 min 0 min 0,0 UV-I 0 W/m 10,3 km/h (2 Bft)
08.03.2013 07:02 8,6 C 6,8 C 95 % 997,6 hPa 0,0 l/m 0 min 0 min 0,0 UV-I 5 W/m 7,7 km/h (2 Bft)
08.03.2013 07:04 8,6 C 6,2 C 95 % 997,6 hPa 0,0 l/m 0 min 0 min 0,0 UV-I 7 W/m 2,6 km/h (1 Bft)
08.03.2013 07:06 8,6 C 6,8 C 96 % 997,5 hPa 0,0 l/m 0 min 0 min 0,0 UV-I 7 W/m 7,7 km/h (2 Bft)
08.03.2013 07:08 8,6 C 6,8 C 96 % 997,5 hPa 0,0 l/m 0 min 0 min 0,0 UV-I 9 W/m 5,1 km/h (1 Bft)
08.03.2013 07:10 8,6 C 6,8 C 96 % 997,6 hPa 0,0 l/m 0 min 0 min 0,0 UV-I 9 W/m 5,1 km/h (1 Bft)
08.03.2013 07:12 8,6 C 6,8 C 96 % 997,6 hPa 0,0 l/m 0 min 0 min 0,0 UV-I 9 W/m 7,7 km/h (2 Bft)
08.03.2013 07:14 8,6 C 6,8 C 96 % 997,6 hPa 0,0 l/m 0 min 0 min 0,0 UV-I 11 W/m 5,1 km/h (1 Bft)
08.03.2013 07:16 8,6 C 6,8 C 96 % 997,6 hPa 0,0 l/m 0 min 0 min 0,0 UV-I 12 W/m 2,6 km/h (1 Bft)
08.03.2013 07:18 8,6 C 6,8 C 96 % 997,7 hPa 0,0 l/m 0 min 0 min 0,0 UV-I 12 W/m 2,6 km/h (1 Bft)
08.03.2013 07:20 8,5 C 6,8 C 96 % 997,7 hPa 0,0 l/m 0 min 0 min 0,0 UV-I 16 W/m 0,0 km/h (0 Bft)
08.03.2013 07:22 8,5 C 6,8 C 96 % 997,6 hPa 0,0 l/m 0 min 0 min 0,0 UV-I 16 W/m 7,7 km/h (2 Bft)
08.03.2013 07:24 8,5 C 6,8 C 96 % 997,6 hPa 0,0 l/m 0 min 0 min 0,0 UV-I 18 W/m 0,0 km/h (0 Bft)
08.03.2013 07:26 8,5 C 6,8 C 96 % 997,6 hPa 0,0 l/m 0 min 0 min 0,0 UV-I 21 W/m 0,0 km/h (0 Bft)
08.03.2013 07:28 8,5 C 6,8 C 96 % 997,6 hPa 0,0 l/m 0 min 0 min 0,0 UV-I 21 W/m 5,1 km/h (1 Bft)
08.03.2013 07:30 8,5 C 6,8 C 96 % 997,6 hPa 0,0 l/m 0 min 0 min 0,0 UV-I 23 W/m 7,7 km/h (2 Bft)
08.03.2013 07:32 8,5 C 6,8 C 96 % 997,6 hPa 0,0 l/m 0 min 0 min 0,0 UV-I 26 W/m 10,3 km/h (2 Bft)
08.03.2013 07:34 8,5 C 6,8 C 96 % 997,7 hPa 0,0 l/m 0 min 0 min 0,0 UV-I 28 W/m 7,7 km/h (2 Bft)
08.03.2013 07:36 8,5 C 6,8 C 96 % 997,7 hPa 0,0 l/m 0 min 0 min 0,0 UV-I 30 W/m 10,3 km/h (2 Bft)
08.03.2013 07:38 8,5 C 6,8 C 96 % 997,7 hPa 0,0 l/m 0 min 0 min 0,0 UV-I 33 W/m 5,1 km/h (1 Bft)
08.03.2013 07:40 8,6 C 6,8 C 96 % 997,7 hPa 0,0 l/m 0 min 0 min 0,0 UV-I 35 W/m 7,7 km/h (2 Bft)
08.03.2013 07:42 8,6 C 6,8 C 96 % 997,7 hPa 0,0 l/m 0 min 0 min 0,0 UV-I 39 W/m 5,1 km/h (1 Bft)
08.03.2013 07:44 8,6 C 6,8 C 96 % 997,7 hPa 0,0 l/m 0 min 0 min 0,0 UV-I 42 W/m 12,9 km/h (3 Bft)
08.03.2013 07:46 8,6 C 7,3 C 96 % 997,7 hPa 0,0 l/m 0 min 0 min 0,0 UV-I 42 W/m 10,3 km/h (2 Bft)
08.03.2013 07:48 8,6 C 7,3 C 96 % 997,8 hPa 0,0 l/m 0 min 0 min 0,0 UV-I 42 W/m 7,7 km/h (2 Bft)
08.03.2013 07:50 8,6 C 7,3 C 96 % 997,8 hPa 0,0 l/m 0 min 0 min 0,0 UV-I 42 W/m 12,9 km/h (3 Bft)
08.03.2013 07:52 8,6 C 7,3 C 96 % 997,8 hPa 0,0 l/m 0 min 0 min 0,0 UV-I 42 W/m 5,1 km/h (1 Bft)
08.03.2013 07:54 8,7 C 7,3 C 96 % 997,8 hPa 0,0 l/m 0 min 0 min 0,0 UV-I 42 W/m 2,6 km/h (1 Bft)
08.03.2013 07:56 8,7 C 7,3 C 96 % 997,9 hPa 0,0 l/m 0 min 0 min 0,0 UV-I 42 W/m 5,1 km/h (1 Bft)
08.03.2013 07:58 8,7 C 7,3 C 96 % 997,8 hPa 0,0 l/m 0 min 0 min 0,0 UV-I 42 W/m 0,0 km/h (0 Bft)
08.03.2013 08:00 8,7 C 7,3 C 96 % 997,9 hPa 0,0 l/m 0 min 0 min 0,0 UV-I 42 W/m 0,0 km/h (0 Bft)
08.03.2013 08:02 8,7 C 7,3 C 96 % 997,8 hPa 0,0 l/m 0 min 0 min 0,0 UV-I 44 W/m 2,6 km/h (1 Bft)
08.03.2013 08:04 8,7 C 7,3 C 96 % 997,8 hPa 0,0 l/m 0 min 0 min 0,0 UV-I 46 W/m 7,7 km/h (2 Bft)
08.03.2013 08:06 8,7 C 7,3 C 96 % 997,8 hPa 0,0 l/m 0 min 0 min 0,0 UV-I 46 W/m 18,0 km/h (3 Bft)
08.03.2013 08:08 8,8 C 7,3 C 96 % 997,9 hPa 0,0 l/m 0 min 0 min 0,0 UV-I 49 W/m 12,9 km/h (3 Bft)
08.03.2013 08:10 8,8 C 7,3 C 96 % 997,9 hPa 0,0 l/m 0 min 0 min 0,0 UV-I 51 W/m 0,0 km/h (0 Bft)
08.03.2013 08:12 8,8 C 7,3 C 96 % 997,9 hPa 0,0 l/m 0 min 0 min 0,0 UV-I 53 W/m 5,1 km/h (1 Bft)
08.03.2013 08:14 8,8 C 7,9 C 96 % 997,9 hPa 0,0 l/m 0 min 0 min 0,0 UV-I 56 W/m 7,7 km/h (2 Bft)
08.03.2013 08:16 8,8 C 7,9 C 96 % 997,9 hPa 0,0 l/m 0 min 0 min 0,0 UV-I 58 W/m 0,0 km/h (0 Bft)
08.03.2013 08:18 8,8 C 7,9 C 96 % 997,9 hPa 0,0 l/m 0 min 0 min 0,0 UV-I 60 W/m 2,6 km/h (1 Bft)
08.03.2013 08:20 8,8 C 7,9 C 96 % 997,9 hPa 0,0 l/m 0 min 0 min 0,0 UV-I 63 W/m 7,7 km/h (2 Bft)
08.03.2013 08:22 8,9 C 7,9 C 96 % 997,9 hPa 0,0 l/m 0 min 0 min 0,0 UV-I 65 W/m 10,3 km/h (2 Bft)
08.03.2013 08:24 8,9 C 7,9 C 96 % 997,9 hPa 0,0 l/m 0 min 0 min 0,0 UV-I 67 W/m 7,7 km/h (2 Bft)
08.03.2013 08:26 8,9 C 7,9 C 96 % 998,0 hPa 0,2 l/m 0 min 0 min 0,0 UV-I 69 W/m 10,3 km/h (2 Bft)
08.03.2013 08:28 8,9 C 7,9 C 96 % 998,0 hPa 0,0 l/m 0 min 0 min 0,0 UV-I 69 W/m 12,9 km/h (3 Bft)
08.03.2013 08:30 9,0 C 7,9 C 96 % 998,0 hPa 0,0 l/m 0 min 0 min 0,0 UV-I 69 W/m 7,7 km/h (2 Bft)
08.03.2013 08:32 9,1 C 8,4 C 96 % 998,0 hPa 0,0 l/m 0 min 0 min 0,0 UV-I 70 W/m 12,9 km/h (3 Bft)
08.03.2013 08:34 9,1 C 8,4 C 96 % 998,0 hPa 0,0 l/m 0 min 0 min 0,0 UV-I 74 W/m 10,3 km/h (2 Bft)
08.03.2013 08:36 9,1 C 8,4 C 96 % 998,0 hPa 0,0 l/m 0 min 0 min 0,0 UV-I 76 W/m 10,3 km/h (2 Bft)
08.03.2013 08:38 9,1 C 8,4 C 96 % 998,0 hPa 0,0 l/m 0 min 0 min 0,0 UV-I 79 W/m 7,7 km/h (2 Bft)
08.03.2013 08:40 9,2 C 8,4 C 96 % 998,0 hPa 0,0 l/m 0 min 0 min 0,0 UV-I 81 W/m 10,3 km/h (2 Bft)
08.03.2013 08:42 9,2 C 8,4 C 96 % 998,0 hPa 0,0 l/m 0 min 0 min 0,0 UV-I 86 W/m 7,7 km/h (2 Bft)
08.03.2013 08:44 9,2 C 8,4 C 95 % 998,0 hPa 0,0 l/m 0 min 0 min 0,0 UV-I 88 W/m 12,9 km/h (3 Bft)
08.03.2013 08:46 9,3 C 8,4 C 95 % 998,0 hPa 0,0 l/m 0 min 0 min 0,0 UV-I 91 W/m 10,3 km/h (2 Bft)
08.03.2013 08:48 9,3 C 8,4 C 95 % 998,0 hPa 0,0 l/m 0 min 0 min 0,0 UV-I 93 W/m 12,9 km/h (3 Bft)
08.03.2013 08:50 9,3 C 8,4 C 95 % 998,0 hPa 0,0 l/m 0 min 0 min 0,0 UV-I 95 W/m 18,0 km/h (3 Bft)
08.03.2013 08:52 9,3 C 8,4 C 95 % 998,0 hPa 0,0 l/m 0 min 0 min 0,0 UV-I 98 W/m 20,6 km/h (4 Bft)
08.03.2013 08:54 9,4 C 8,4 C 95 % 998,0 hPa 0,0 l/m 0 min 0 min 0,0 UV-I 111 W/m 10,3 km/h (2 Bft)
08.03.2013 08:56 9,4 C 9,0 C 95 % 998,0 hPa 0,0 l/m 0 min 0 min 0,0 UV-I 109 W/m 10,3 km/h (2 Bft)
08.03.2013 08:58 9,5 C 9,0 C 95 % 998,0 hPa 0,0 l/m 0 min 0 min 0,0 UV-I 105 W/m 15,4 km/h (3 Bft)
08.03.2013 09:00 9,5 C 9,0 C 95 % 998,0 hPa 0,0 l/m 0 min 0 min 0,0 UV-I 102 W/m 5,1 km/h (1 Bft)
08.03.2013 09:02 9,6 C 9,0 C 95 % 998,1 hPa 0,0 l/m 0 min 0 min 0,0 UV-I 102 W/m 10,3 km/h (2 Bft)
08.03.2013 09:06 9,6 C 9,0 C 94 % 998,0 hPa 0,0 l/m 0 min 0 min 0,0 UV-I 102 W/m 10,3 km/h (2 Bft)
08.03.2013 09:08 9,7 C 9,0 C 94 % 998,0 hPa 0,0 l/m 0 min 0 min 0,0 UV-I 102 W/m 10,3 km/h (2 Bft)
08.03.2013 09:10 9,7 C 9,0 C 94 % 998,1 hPa 0,0 l/m 0 min 0 min 0,0 UV-I 104 W/m 7,7 km/h (2 Bft)
08.03.2013 09:12 9,7 C 9,0 C 94 % 998,1 hPa 0,0 l/m 0 min 0 min 0,0 UV-I 104 W/m 10,3 km/h (2 Bft)
08.03.2013 09:14 9,7 C 9,0 C 94 % 998,1 hPa 0,0 l/m 0 min 0 min 0,0 UV-I 107 W/m 0,0 km/h (0 Bft)
08.03.2013 09:16 9,8 C 9,0 C 94 % 998,1 hPa 0,0 l/m 0 min 0 min 0,0 UV-I 116 W/m 18,0 km/h (3 Bft)
08.03.2013 09:18 9,8 C 9,0 C 94 % 998,0 hPa 0,0 l/m 0 min 0 min 0,0 UV-I 149 W/m 12,9 km/h (3 Bft)
08.03.2013 09:20 9,8 C 9,6 C 94 % 998,1 hPa 0,0 l/m 0 min 0 min 0,0 UV-I 148 W/m 7,7 km/h (2 Bft)
08.03.2013 09:22 9,9 C 9,6 C 93 % 998,0 hPa 0,0 l/m 0 min 0 min 0,0 UV-I 142 W/m 10,3 km/h (2 Bft)
08.03.2013 09:24 9,9 C 9,6 C 93 % 998,0 hPa 0,0 l/m 0 min 0 min 0,0 UV-I 121 W/m 7,7 km/h (2 Bft)
08.03.2013 09:26 10,0 C 9,6 C 93 % 998,0 hPa 0,0 l/m 0 min 0 min 0,0 UV-I 137 W/m 12,9 km/h (3 Bft)
08.03.2013 09:28 10,0 C 9,6 C 93 % 998,0 hPa 0,0 l/m 0 min 0 min 0,0 UV-I 142 W/m 7,7 km/h (2 Bft)
08.03.2013 09:30 10,1 C 9,6 C 93 % 998,0 hPa 0,0 l/m 0 min 0 min 0,0 UV-I 137 W/m 5,1 km/h (1 Bft)
08.03.2013 09:32 10,1 C 9,6 C 93 % 998,0 hPa 0,0 l/m 0 min 0 min 0,0 UV-I 139 W/m 7,7 km/h (2 Bft)
08.03.2013 09:34 10,2 C 9,6 C 93 % 998,0 hPa 0,0 l/m 0 min 0 min 0,0 UV-I 153 W/m 7,7 km/h (2 Bft)
08.03.2013 09:36 10,2 C 9,6 C 92 % 998,0 hPa 0,0 l/m 0 min 0 min 0,0 UV-I 148 W/m 18,0 km/h (3 Bft)
08.03.2013 09:38 10,3 C 9,6 C 92 % 998,0 hPa 0,0 l/m 0 min 0 min 0,0 UV-I 148 W/m 25,7 km/h (4 Bft)
08.03.2013 09:40 10,3 C 9,6 C 92 % 998,0 hPa 0,0 l/m 0 min 0 min 0,0 UV-I 153 W/m 12,9 km/h (3 Bft)
08.03.2013 09:42 10,3 C 10,1 C 92 % 998,0 hPa 0,0 l/m 0 min 0 min 0,0 UV-I 171 W/m 10,3 km/h (2 Bft)
08.03.2013 09:44 10,4 C 10,1 C 91 % 998,0 hPa 0,0 l/m 0 min 0 min 0,0 UV-I 160 W/m 28,3 km/h (4 Bft)
08.03.2013 09:46 10,4 C 10,1 C 91 % 998,0 hPa 0,0 l/m 0 min 0 min 0,0 UV-I 183 W/m 12,9 km/h (3 Bft)
08.03.2013 09:48 10,5 C 10,1 C 91 % 998,0 hPa 0,0 l/m 2 min 0 min 0,0 UV-I 213 W/m 12,9 km/h (3 Bft)
08.03.2013 09:50 10,6 C 10,7 C 91 % 997,9 hPa 0,0 l/m 2 min 0 min 0,0 UV-I 218 W/m 7,7 km/h (2 Bft)
08.03.2013 09:52 10,7 C 10,7 C 91 % 997,9 hPa 0,0 l/m 0 min 0 min 0,0 UV-I 211 W/m 5,1 km/h (1 Bft)
08.03.2013 09:54 10,7 C 10,7 C 91 % 997,9 hPa 0,0 l/m 0 min 0 min 0,0 UV-I 211 W/m 10,3 km/h (2 Bft)
08.03.2013 09:56 10,8 C 10,7 C 91 % 998,0 hPa 0,0 l/m 0 min 0 min 0,0 UV-I 209 W/m 12,9 km/h (3 Bft)
08.03.2013 09:58 10,8 C 10,7 C 91 % 997,9 hPa 0,0 l/m 0 min 0 min 0,0 UV-I 181 W/m 7,7 km/h (2 Bft)
08.03.2013 10:00 10,9 C 10,7 C 90 % 997,9 hPa 0,0 l/m 0 min 0 min 0,0 UV-I 197 W/m 15,4 km/h (3 Bft)
08.03.2013 10:02 11,0 C 11,2 C 90 % 997,9 hPa 0,0 l/m 0 min 0 min 0,0 UV-I 221 W/m 15,4 km/h (3 Bft)
08.03.2013 10:04 11,1 C 11,2 C 90 % 997,9 hPa 0,0 l/m 2 min 0 min 0,0 UV-I 236 W/m 18,0 km/h (3 Bft)
08.03.2013 10:06 11,2 C 11,2 C 90 % 997,9 hPa 0,0 l/m 0 min 0 min 0,0 UV-I 230 W/m 12,9 km/h (3 Bft)
08.03.2013 10:08 11,2 C 11,2 C 89 % 997,9 hPa 0,0 l/m 0 min 0 min 0,0 UV-I 232 W/m 10,3 km/h (2 Bft)
08.03.2013 10:10 11,3 C 11,2 C 89 % 997,9 hPa 0,0 l/m 2 min 0 min 0,0 UV-I 244 W/m 7,7 km/h (2 Bft)
08.03.2013 10:12 11,3 C 11,2 C 89 % 997,9 hPa 0,0 l/m 2 min 0 min 0,0 UV-I 239 W/m 10,3 km/h (2 Bft)
08.03.2013 10:14 11,4 C 11,2 C 89 % 997,9 hPa 0,0 l/m 0 min 0 min 0,0 UV-I 232 W/m 12,9 km/h (3 Bft)
08.03.2013 10:16 11,5 C 11,2 C 89 % 997,9 hPa 0,0 l/m 0 min 0 min 0,0 UV-I 230 W/m 15,4 km/h (3 Bft)
08.03.2013 10:18 11,6 C 11,2 C 89 % 997,9 hPa 0,0 l/m 0 min 0 min 0,0 UV-I 225 W/m 18,0 km/h (3 Bft)
08.03.2013 10:20 11,7 C 11,8 C 88 % 997,9 hPa 0,0 l/m 0 min 0 min 0,0 UV-I 234 W/m 12,9 km/h (3 Bft)
08.03.2013 10:22 11,7 C 11,8 C 88 % 997,9 hPa 0,0 l/m 0 min 0 min 0,0 UV-I 232 W/m 18,0 km/h (3 Bft)
08.03.2013 10:24 11,8 C 11,8 C 88 % 997,9 hPa 0,0 l/m 0 min 0 min 0,0 UV-I 244 W/m 23,2 km/h (4 Bft)
08.03.2013 10:26 11,8 C 11,8 C 87 % 997,9 hPa 0,0 l/m 2 min 0 min 0,0 UV-I 253 W/m 18,0 km/h (3 Bft)
08.03.2013 10:28 11,8 C 11,8 C 86 % 997,9 hPa 0,0 l/m 2 min 0 min 0,0 UV-I 278 W/m 20,6 km/h (4 Bft)
08.03.2013 10:30 11,9 C 11,8 C 86 % 997,9 hPa 0,0 l/m 2 min 0 min 0,0 UV-I 278 W/m 25,7 km/h (4 Bft)
08.03.2013 10:32 11,9 C 11,8 C 86 % 997,9 hPa 0,0 l/m 2 min 0 min 0,0 UV-I 278 W/m 28,3 km/h (4 Bft)
08.03.2013 10:34 12,0 C 11,8 C 86 % 997,9 hPa 0,0 l/m 2 min 0 min 0,0 UV-I 325 W/m 23,2 km/h (4 Bft)
08.03.2013 10:36 12,1 C 11,8 C 85 % 997,9 hPa 0,0 l/m 2 min 0 min 0,0 UV-I 292 W/m 20,6 km/h (4 Bft)
08.03.2013 10:38 12,2 C 11,8 C 85 % 997,9 hPa 0,0 l/m 2 min 0 min 0,0 UV-I 279 W/m 18,0 km/h (3 Bft)
08.03.2013 10:40 12,2 C 11,8 C 85 % 997,9 hPa 0,0 l/m 2 min 0 min 0,0 UV-I 262 W/m 23,2 km/h (4 Bft)
08.03.2013 10:42 12,2 C 11,8 C 85 % 997,9 hPa 0,0 l/m 0 min 0 min 0,0 UV-I 248 W/m 20,6 km/h (4 Bft)
08.03.2013 10:44 12,3 C 11,8 C 84 % 997,9 hPa 0,0 l/m 0 min 0 min 0,0 UV-I 239 W/m 18,0 km/h (3 Bft)
08.03.2013 10:46 12,3 C 11,8 C 84 % 997,8 hPa 0,0 l/m 0 min 0 min 0,0 UV-I 211 W/m 18,0 km/h (3 Bft)
08.03.2013 10:48 12,3 C 11,8 C 84 % 997,9 hPa 0,0 l/m 0 min 0 min 0,0 UV-I 199 W/m 15,4 km/h (3 Bft)
08.03.2013 10:50 12,3 C 11,8 C 84 % 997,9 hPa 0,0 l/m 0 min 0 min 0,0 UV-I 202 W/m 18,0 km/h (3 Bft)
08.03.2013 10:52 12,4 C 11,8 C 84 % 997,9 hPa 0,0 l/m 0 min 0 min 0,0 UV-I 195 W/m 12,9 km/h (3 Bft)
08.03.2013 10:54 12,4 C 11,8 C 84 % 997,9 hPa 0,0 l/m 0 min 0 min 0,0 UV-I 202 W/m 15,4 km/h (3 Bft)
08.03.2013 10:56 12,4 C 11,8 C 84 % 997,9 hPa 0,0 l/m 0 min 0 min 0,0 UV-I 200 W/m 23,2 km/h (4 Bft)
08.03.2013 10:58 12,4 C 11,8 C 84 % 997,9 hPa 0,0 l/m 0 min 0 min 0,0 UV-I 183 W/m 10,3 km/h (2 Bft)
08.03.2013 11:00 12,4 C 11,8 C 84 % 997,9 hPa 0,0 l/m 0 min 0 min 0,0 UV-I 181 W/m 12,9 km/h (3 Bft)
08.03.2013 11:02 12,4 C 11,8 C 84 % 997,9 hPa 0,0 l/m 0 min 0 min 0,0 UV-I 181 W/m 18,0 km/h (3 Bft)
08.03.2013 11:04 12,4 C 11,8 C 84 % 998,0 hPa 0,0 l/m 0 min 0 min 0,0 UV-I 176 W/m 10,3 km/h (2 Bft)
08.03.2013 11:06 12,5 C 12,3 C 84 % 998,0 hPa 0,0 l/m 0 min 0 min 0,0 UV-I 172 W/m 10,3 km/h (2 Bft)
08.03.2013 11:08 12,5 C 12,3 C 84 % 998,0 hPa 0,0 l/m 0 min 0 min 0,0 UV-I 171 W/m 18,0 km/h (3 Bft)
08.03.2013 11:10 12,5 C 12,3 C 84 % 998,0 hPa 0,0 l/m 0 min 0 min 0,0 UV-I 167 W/m 15,4 km/h (3 Bft)
08.03.2013 11:12 12,5 C 12,3 C 84 % 998,0 hPa 0,0 l/m 0 min 0 min 0,0 UV-I 163 W/m 10,3 km/h (2 Bft)
08.03.2013 11:14 12,6 C 12,3 C 84 % 998,0 hPa 0,0 l/m 0 min 0 min 0,0 UV-I 167 W/m 15,4 km/h (3 Bft)
08.03.2013 11:16 12,6 C 12,3 C 84 % 998,0 hPa 0,0 l/m 0 min 0 min 0,0 UV-I 172 W/m 10,3 km/h (2 Bft)
08.03.2013 11:18 12,6 C 12,3 C 84 % 998,0 hPa 0,0 l/m 0 min 0 min 0,0 UV-I 174 W/m 15,4 km/h (3 Bft)
08.03.2013 11:20 12,6 C 12,9 C 84 % 998,0 hPa 0,0 l/m 0 min 0 min 0,0 UV-I 174 W/m 2,6 km/h (1 Bft)
08.03.2013 11:22 12,7 C 12,3 C 84 % 997,9 hPa 0,0 l/m 0 min 0 min 0,0 UV-I 171 W/m 10,3 km/h (2 Bft)
08.03.2013 11:24 12,7 C 12,3 C 84 % 997,9 hPa 0,0 l/m 0 min 0 min 0,0 UV-I 162 W/m 10,3 km/h (2 Bft)
08.03.2013 11:26 12,7 C 12,3 C 84 % 998,0 hPa 0,0 l/m 0 min 0 min 0,0 UV-I 146 W/m 15,4 km/h (3 Bft)
08.03.2013 11:28 12,7 C 12,3 C 84 % 998,0 hPa 0,0 l/m 0 min 0 min 0,0 UV-I 137 W/m 10,3 km/h (2 Bft)
08.03.2013 11:30 12,7 C 12,3 C 83 % 998,0 hPa 0,0 l/m 0 min 0 min 0,0 UV-I 134 W/m 10,3 km/h (2 Bft)
08.03.2013 11:32 12,7 C 12,3 C 83 % 998,0 hPa 0,0 l/m 0 min 0 min 0,0 UV-I 141 W/m 12,9 km/h (3 Bft)
08.03.2013 11:34 12,7 C 12,3 C 83 % 998,0 hPa 0,0 l/m 0 min 0 min 0,0 UV-I 155 W/m 12,9 km/h (3 Bft)
08.03.2013 11:36 12,7 C 12,3 C 83 % 998,0 hPa 0,0 l/m 0 min 0 min 0,0 UV-I 172 W/m 15,4 km/h (3 Bft)
08.03.2013 11:38 12,7 C 12,3 C 83 % 998,0 hPa 0,0 l/m 0 min 0 min 0,0 UV-I 197 W/m 10,3 km/h (2 Bft)
08.03.2013 11:40 12,7 C 12,9 C 83 % 998,0 hPa 0,0 l/m 0 min 0 min 0,0 UV-I 202 W/m 10,3 km/h (2 Bft)
08.03.2013 11:42 12,8 C 12,9 C 83 % 998,0 hPa 0,0 l/m 0 min 0 min 0,0 UV-I 197 W/m 2,6 km/h (1 Bft)
08.03.2013 11:44 12,8 C 12,9 C 84 % 997,9 hPa 0,0 l/m 0 min 0 min 0,0 UV-I 199 W/m 12,9 km/h (3 Bft)
08.03.2013 11:46 12,8 C 12,9 C 84 % 998,0 hPa 0,0 l/m 0 min 0 min 0,0 UV-I 204 W/m 10,3 km/h (2 Bft)
08.03.2013 11:48 12,9 C 12,9 C 83 % 997,9 hPa 0,0 l/m 0 min 0 min 0,0 UV-I 207 W/m 18,0 km/h (3 Bft)
08.03.2013 11:50 12,9 C 12,9 C 83 % 998,0 hPa 0,0 l/m 0 min 0 min 0,0 UV-I 213 W/m 15,4 km/h (3 Bft)
08.03.2013 11:52 12,9 C 13,4 C 83 % 998,0 hPa 0,0 l/m 0 min 0 min 0,0 UV-I 202 W/m 12,9 km/h (3 Bft)
08.03.2013 11:54 13,0 C 13,4 C 83 % 997,9 hPa 0,0 l/m 0 min 0 min 0,0 UV-I 190 W/m 12,9 km/h (3 Bft)
08.03.2013 11:56 13,1 C 13,4 C 83 % 998,0 hPa 0,0 l/m 0 min 0 min 0,0 UV-I 171 W/m 10,3 km/h (2 Bft)
08.03.2013 11:58 13,1 C 13,4 C 83 % 998,0 hPa 0,0 l/m 0 min 0 min 0,0 UV-I 151 W/m 7,7 km/h (2 Bft)
08.03.2013 12:00 13,2 C 13,4 C 83 % 997,9 hPa 0,0 l/m 0 min 0 min 0,0 UV-I 144 W/m 5,1 km/h (1 Bft)
08.03.2013 12:02 13,2 C 13,4 C 83 % 997,9 hPa 0,0 l/m 0 min 0 min 0,0 UV-I 132 W/m 10,3 km/h (2 Bft)
08.03.2013 12:06 13,3 C 12,9 C 82 % 997,9 hPa 0,0 l/m 0 min 0 min 0,0 UV-I 123 W/m 7,7 km/h (2 Bft)
08.03.2013 12:08 13,3 C 12,9 C 81 % 998,0 hPa 0,0 l/m 0 min 0 min 0,0 UV-I 121 W/m 10,3 km/h (2 Bft)
08.03.2013 12:10 13,3 C 12,9 C 81 % 998,0 hPa 0,0 l/m 0 min 0 min 0,0 UV-I 134 W/m 7,7 km/h (2 Bft)
08.03.2013 12:12 13,3 C 12,9 C 81 % 997,9 hPa 0,0 l/m 0 min 0 min 0,0 UV-I 146 W/m 7,7 km/h (2 Bft)
08.03.2013 12:14 13,3 C 12,9 C 81 % 997,9 hPa 0,0 l/m 0 min 0 min 0,0 UV-I 156 W/m 12,9 km/h (3 Bft)
08.03.2013 12:16 13,3 C 12,9 C 81 % 997,9 hPa 0,0 l/m 0 min 0 min 0,0 UV-I 156 W/m 10,3 km/h (2 Bft)
08.03.2013 12:18 13,4 C 12,9 C 81 % 997,9 hPa 0,0 l/m 0 min 0 min 0,0 UV-I 160 W/m 10,3 km/h (2 Bft)
08.03.2013 12:20 13,4 C 12,9 C 81 % 997,9 hPa 0,0 l/m 0 min 0 min 0,0 UV-I 160 W/m 2,6 km/h (1 Bft)
08.03.2013 12:22 13,4 C 13,4 C 81 % 997,9 hPa 0,0 l/m 0 min 0 min 0,0 UV-I 160 W/m 10,3 km/h (2 Bft)
08.03.2013 12:24 13,4 C 13,4 C 81 % 998,0 hPa 0,0 l/m 0 min 0 min 0,0 UV-I 158 W/m 18,0 km/h (3 Bft)
08.03.2013 12:26 13,4 C 13,4 C 81 % 997,9 hPa 0,0 l/m 0 min 0 min 0,0 UV-I 155 W/m 2,6 km/h (1 Bft)
08.03.2013 12:28 13,5 C 13,4 C 82 % 997,9 hPa 0,0 l/m 0 min 0 min 0,0 UV-I 151 W/m 0,0 km/h (0 Bft)
08.03.2013 12:30 13,6 C 13,4 C 82 % 997,9 hPa 0,0 l/m 0 min 0 min 0,0 UV-I 151 W/m 2,6 km/h (1 Bft)
08.03.2013 12:32 13,6 C 13,4 C 81 % 998,0 hPa 0,0 l/m 0 min 0 min 0,0 UV-I 151 W/m 0,0 km/h (0 Bft)
08.03.2013 12:34 13,6 C 13,4 C 82 % 998,0 hPa 0,0 l/m 0 min 0 min 0,0 UV-I 144 W/m 2,6 km/h (1 Bft)
08.03.2013 12:36 13,6 C 13,4 C 82 % 998,0 hPa 0,0 l/m 0 min 0 min 0,0 UV-I 128 W/m 0,0 km/h (0 Bft)
08.03.2013 12:38 13,7 C 13,4 C 82 % 997,9 hPa 0,0 l/m 0 min 0 min 0,0 UV-I 125 W/m 2,6 km/h (1 Bft)
08.03.2013 12:40 13,7 C 13,4 C 81 % 998,0 hPa 0,0 l/m 0 min 0 min 0,0 UV-I 132 W/m 7,7 km/h (2 Bft)
08.03.2013 12:42 13,7 C 13,4 C 81 % 998,0 hPa 0,0 l/m 0 min 0 min 0,0 UV-I 142 W/m 10,3 km/h (2 Bft)
08.03.2013 12:44 13,8 C 13,4 C 81 % 997,9 hPa 0,0 l/m 0 min 0 min 0,0 UV-I 149 W/m 2,6 km/h (1 Bft)
08.03.2013 12:46 13,8 C 13,4 C 80 % 997,9 hPa 0,0 l/m 0 min 0 min 0,0 UV-I 209 W/m 7,7 km/h (2 Bft)
08.03.2013 12:48 13,8 C 13,4 C 81 % 997,9 hPa 0,0 l/m 0 min 0 min 0,0 UV-I 202 W/m 2,6 km/h (1 Bft)
08.03.2013 12:50 13,9 C 14,0 C 81 % 997,9 hPa 0,0 l/m 0 min 0 min 0,0 UV-I 225 W/m 7,7 km/h (2 Bft)
08.03.2013 12:52 13,9 C 14,0 C 81 % 997,9 hPa 0,0 l/m 0 min 0 min 0,0 UV-I 225 W/m 10,3 km/h (2 Bft)
08.03.2013 12:54 14,0 C 14,0 C 80 % 997,9 hPa 0,0 l/m 0 min 0 min 0,0 UV-I 225 W/m 15,4 km/h (3 Bft)
08.03.2013 12:56 14,1 C 14,6 C 80 % 997,9 hPa 0,0 l/m 0 min 0 min 0,0 UV-I 223 W/m 5,1 km/h (1 Bft)
08.03.2013 12:58 14,1 C 14,6 C 79 % 997,8 hPa 0,0 l/m 0 min 0 min 0,0 UV-I 211 W/m 12,9 km/h (3 Bft)
08.03.2013 13:00 14,1 C 14,6 C 79 % 997,9 hPa 0,0 l/m 0 min 0 min 0,0 UV-I 190 W/m 7,7 km/h (2 Bft)
08.03.2013 13:02 14,2 C 14,6 C 79 % 997,9 hPa 0,0 l/m 0 min 0 min 0,0 UV-I 183 W/m 12,9 km/h (3 Bft)
08.03.2013 13:04 14,2 C 14,6 C 79 % 997,9 hPa 0,0 l/m 0 min 0 min 0,0 UV-I 192 W/m 7,7 km/h (2 Bft)
08.03.2013 13:06 14,3 C 14,6 C 79 % 997,9 hPa 0,0 l/m 0 min 0 min 0,0 UV-I 225 W/m 5,1 km/h (1 Bft)
08.03.2013 13:08 14,3 C 14,6 C 78 % 997,9 hPa 0,0 l/m 0 min 0 min 0,0 UV-I 241 W/m 12,9 km/h (3 Bft)
08.03.2013 13:10 14,4 C 14,6 C 78 % 997,8 hPa 0,0 l/m 0 min 0 min 0,0 UV-I 216 W/m 10,3 km/h (2 Bft)
08.03.2013 13:12 14,4 C 14,6 C 78 % 997,8 hPa 0,0 l/m 0 min 0 min 0,0 UV-I 162 W/m 7,7 km/h (2 Bft)
08.03.2013 13:14 14,5 C 14,6 C 78 % 997,8 hPa 0,0 l/m 0 min 0 min 0,0 UV-I 153 W/m 2,6 km/h (1 Bft)
08.03.2013 13:16 14,6 C 14,0 C 77 % 997,7 hPa 0,0 l/m 0 min 0 min 0,0 UV-I 171 W/m 7,7 km/h (2 Bft)
08.03.2013 13:18 14,6 C 14,0 C 77 % 997,7 hPa 0,0 l/m 0 min 0 min 0,0 UV-I 148 W/m 5,1 km/h (1 Bft)
08.03.2013 13:20 14,6 C 14,0 C 78 % 997,6 hPa 0,0 l/m 0 min 0 min 0,0 UV-I 139 W/m 7,7 km/h (2 Bft)
08.03.2013 13:22 14,6 C 13,4 C 78 % 997,6 hPa 0,0 l/m 0 min 0 min 0,0 UV-I 137 W/m 0,0 km/h (0 Bft)
08.03.2013 13:24 14,7 C 13,4 C 77 % 997,6 hPa 0,0 l/m 0 min 0 min 0,0 UV-I 132 W/m 2,6 km/h (1 Bft)
08.03.2013 13:26 14,7 C 13,4 C 77 % 997,6 hPa 0,0 l/m 0 min 0 min 0,0 UV-I 132 W/m 2,6 km/h (1 Bft)
08.03.2013 13:28 14,7 C 13,4 C 77 % 997,5 hPa 0,0 l/m 0 min 0 min 0,0 UV-I 139 W/m 7,7 km/h (2 Bft)
08.03.2013 13:30 14,7 C 13,4 C 77 % 997,6 hPa 0,0 l/m 0 min 0 min 0,0 UV-I 169 W/m 2,6 km/h (1 Bft)
08.03.2013 13:32 14,7 C 13,4 C 77 % 997,5 hPa 0,0 l/m 0 min 0 min 0,0 UV-I 192 W/m 2,6 km/h (1 Bft)
08.03.2013 13:34 14,7 C 14,0 C 77 % 997,5 hPa 0,0 l/m 0 min 0 min 0,0 UV-I 246 W/m 5,1 km/h (1 Bft)
08.03.2013 13:36 14,7 C 14,0 C 77 % 997,5 hPa 0,0 l/m 0 min 0 min 0,0 UV-I 236 W/m 7,7 km/h (2 Bft)
08.03.2013 13:38 14,7 C 14,0 C 77 % 997,6 hPa 0,0 l/m 0 min 0 min 0,0 UV-I 243 W/m 10,3 km/h (2 Bft)
08.03.2013 13:40 14,7 C 14,6 C 77 % 997,5 hPa 0,0 l/m 0 min 0 min 0,0 UV-I 232 W/m 0,0 km/h (0 Bft)
08.03.2013 13:42 14,8 C 14,6 C 77 % 997,5 hPa 0,0 l/m 2 min 0 min 0,5 UV-I 301 W/m 2,6 km/h (1 Bft)
08.03.2013 13:44 14,8 C 15,1 C 78 % 997,5 hPa 0,0 l/m 2 min 0 min 0,7 UV-I 336 W/m 2,6 km/h (1 Bft)
08.03.2013 13:46 15,0 C 15,1 C 78 % 997,5 hPa 0,0 l/m 2 min 0 min 0,9 UV-I 452 W/m 7,7 km/h (2 Bft)
08.03.2013 13:48 15,0 C 15,7 C 77 % 997,5 hPa 0,0 l/m 2 min 0 min 1,1 UV-I 387 W/m 12,9 km/h (3 Bft)
08.03.2013 13:50 15,0 C 15,7 C 76 % 997,5 hPa 0,0 l/m 2 min 0 min 1,1 UV-I 480 W/m 10,3 km/h (2 Bft)
08.03.2013 13:52 15,2 C 15,7 C 76 % 997,4 hPa 0,0 l/m 2 min 0 min 1,1 UV-I 501 W/m 5,1 km/h (1 Bft)
08.03.2013 13:54 15,3 C 15,7 C 75 % 997,4 hPa 0,0 l/m 2 min 0 min 1,0 UV-I 475 W/m 12,9 km/h (3 Bft)
08.03.2013 13:56 15,5 C 15,7 C 74 % 997,4 hPa 0,0 l/m 2 min 0 min 1,0 UV-I 464 W/m 7,7 km/h (2 Bft)
08.03.2013 13:58 15,6 C 15,7 C 74 % 997,5 hPa 0,0 l/m 0 min 0 min 0,7 UV-I 290 W/m 12,9 km/h (3 Bft)
08.03.2013 14:00 15,7 C 15,7 C 73 % 997,4 hPa 0,0 l/m 0 min 0 min 0,6 UV-I 257 W/m 12,9 km/h (3 Bft)
08.03.2013 14:02 15,8 C 15,7 C 73 % 997,4 hPa 0,0 l/m 0 min 0 min 0,6 UV-I 246 W/m 2,6 km/h (1 Bft)
08.03.2013 14:04 15,8 C 15,7 C 73 % 997,5 hPa 0,0 l/m 0 min 0 min 0,6 UV-I 241 W/m 7,7 km/h (2 Bft)
08.03.2013 14:06 15,9 C 15,7 C 72 % 997,3 hPa 0,0 l/m 0 min 0 min 0,5 UV-I 236 W/m 10,3 km/h (2 Bft)
08.03.2013 14:08 15,9 C 15,7 C 72 % 997,4 hPa 0,0 l/m 0 min 0 min 0,5 UV-I 237 W/m 12,9 km/h (3 Bft)
08.03.2013 14:10 16,0 C 15,7 C 72 % 997,4 hPa 0,0 l/m 0 min 0 min 0,5 UV-I 239 W/m 7,7 km/h (2 Bft)
08.03.2013 14:12 16,0 C 15,7 C 72 % 997,3 hPa 0,0 l/m 0 min 0 min 0,0 UV-I 237 W/m 5,1 km/h (1 Bft)
08.03.2013 14:14 16,1 C 15,7 C 72 % 997,4 hPa 0,0 l/m 0 min 0 min 0,5 UV-I 258 W/m 10,3 km/h (2 Bft)
08.03.2013 14:16 16,1 C 15,7 C 72 % 997,3 hPa 0,0 l/m 2 min 0 min 0,0 UV-I 285 W/m 2,6 km/h (1 Bft)
08.03.2013 14:18 16,2 C 16,2 C 72 % 997,4 hPa 0,0 l/m 2 min 0 min 0,6 UV-I 327 W/m 0,0 km/h (0 Bft)
08.03.2013 14:20 16,2 C 16,2 C 73 % 997,4 hPa 0,0 l/m 2 min 0 min 0,5 UV-I 341 W/m 7,7 km/h (2 Bft)
08.03.2013 14:22 16,3 C 16,2 C 73 % 997,4 hPa 0,0 l/m 0 min 0 min 0,5 UV-I 244 W/m 7,7 km/h (2 Bft)
08.03.2013 14:24 16,4 C 16,2 C 71 % 997,4 hPa 0,0 l/m 0 min 0 min 0,0 UV-I 227 W/m 12,9 km/h (3 Bft)
08.03.2013 14:26 16,4 C 16,2 C 70 % 997,3 hPa 0,0 l/m 0 min 0 min 0,0 UV-I 209 W/m 7,7 km/h (2 Bft)
08.03.2013 14:28 16,4 C 15,7 C 70 % 997,3 hPa 0,0 l/m 0 min 0 min 0,0 UV-I 176 W/m 15,4 km/h (3 Bft)
08.03.2013 14:30 16,4 C 15,7 C 69 % 997,3 hPa 0,0 l/m 0 min 0 min 0,0 UV-I 151 W/m 5,1 km/h (1 Bft)
08.03.2013 14:32 16,4 C 15,7 C 70 % 997,3 hPa 0,0 l/m 0 min 0 min 0,0 UV-I 132 W/m 10,3 km/h (2 Bft)
08.03.2013 14:34 16,5 C 15,7 C 70 % 997,3 hPa 0,0 l/m 0 min 0 min 0,0 UV-I 130 W/m 12,9 km/h (3 Bft)
08.03.2013 14:36 16,5 C 15,1 C 70 % 997,3 hPa 0,0 l/m 0 min 0 min 0,0 UV-I 139 W/m 12,9 km/h (3 Bft)
08.03.2013 14:38 16,4 C 15,1 C 69 % 997,3 hPa 0,0 l/m 0 min 0 min 0,0 UV-I 155 W/m 7,7 km/h (2 Bft)
08.03.2013 14:40 16,4 C 15,1 C 69 % 997,3 hPa 0,0 l/m 0 min 0 min 0,0 UV-I 183 W/m 7,7 km/h (2 Bft)
08.03.2013 14:42 16,4 C 15,7 C 70 % 997,3 hPa 0,0 l/m 0 min 0 min 0,0 UV-I 186 W/m 2,6 km/h (1 Bft)
08.03.2013 14:44 16,4 C 15,7 C 70 % 997,3 hPa 0,0 l/m 0 min 0 min 0,0 UV-I 186 W/m 7,7 km/h (2 Bft)
08.03.2013 14:46 16,4 C 15,7 C 70 % 997,2 hPa 0,0 l/m 0 min 0 min 0,0 UV-I 172 W/m 7,7 km/h (2 Bft)
08.03.2013 14:48 16,5 C 15,7 C 70 % 997,3 hPa 0,0 l/m 0 min 0 min 0,0 UV-I 172 W/m 7,7 km/h (2 Bft)
08.03.2013 14:50 16,5 C 15,7 C 69 % 997,2 hPa 0,0 l/m 0 min 0 min 0,0 UV-I 197 W/m 10,3 km/h (2 Bft)
08.03.2013 14:52 16,5 C 15,7 C 69 % 997,2 hPa 0,0 l/m 0 min 0 min 0,0 UV-I 200 W/m 10,3 km/h (2 Bft)
08.03.2013 14:54 16,5 C 15,7 C 70 % 997,2 hPa 0,0 l/m 0 min 0 min 0,0 UV-I 199 W/m 7,7 km/h (2 Bft)
08.03.2013 14:56 16,5 C 15,7 C 69 % 997,2 hPa 0,0 l/m 0 min 0 min 0,0 UV-I 193 W/m 12,9 km/h (3 Bft)
08.03.2013 14:58 16,5 C 15,7 C 69 % 997,1 hPa 0,0 l/m 0 min 0 min 0,0 UV-I 199 W/m 7,7 km/h (2 Bft)
08.03.2013 15:00 16,6 C 15,7 C 70 % 997,2 hPa 0,0 l/m 0 min 0 min 0,0 UV-I 207 W/m 7,7 km/h (2 Bft)
08.03.2013 15:02 16,6 C 15,7 C 71 % 997,2 hPa 0,0 l/m 0 min 0 min 0,0 UV-I 218 W/m 0,0 km/h (0 Bft)
08.03.2013 15:06 16,6 C 16,2 C 70 % 997,1 hPa 0,0 l/m 2 min 0 min 0,0 UV-I 272 W/m 12,9 km/h (3 Bft)
08.03.2013 15:08 16,7 C 16,2 C 70 % 997,1 hPa 0,0 l/m 2 min 0 min 0,0 UV-I 352 W/m 5,1 km/h (1 Bft)
08.03.2013 15:10 16,7 C 16,2 C 69 % 997,2 hPa 0,0 l/m 2 min 0 min 0,0 UV-I 403 W/m 7,7 km/h (2 Bft)
08.03.2013 15:12 16,8 C 16,8 C 69 % 997,2 hPa 0,0 l/m 2 min 0 min 0,0 UV-I 306 W/m 2,6 km/h (1 Bft)
08.03.2013 15:14 16,9 C 16,8 C 69 % 997,1 hPa 0,0 l/m 2 min 0 min 0,0 UV-I 283 W/m 10,3 km/h (2 Bft)
08.03.2013 15:16 16,9 C 16,8 C 68 % 997,1 hPa 0,0 l/m 2 min 0 min 0,0 UV-I 264 W/m 7,7 km/h (2 Bft)
08.03.2013 15:18 17,0 C 16,8 C 69 % 997,0 hPa 0,0 l/m 2 min 0 min 0,0 UV-I 250 W/m 10,3 km/h (2 Bft)
08.03.2013 15:20 17,1 C 16,8 C 68 % 997,1 hPa 0,0 l/m 2 min 0 min 0,0 UV-I 243 W/m 12,9 km/h (3 Bft)
08.03.2013 15:22 17,1 C 16,8 C 68 % 997,1 hPa 0,0 l/m 2 min 0 min 0,0 UV-I 255 W/m 2,6 km/h (1 Bft)
08.03.2013 15:24 17,2 C 16,8 C 68 % 997,0 hPa 0,0 l/m 2 min 0 min 0,0 UV-I 257 W/m 10,3 km/h (2 Bft)
08.03.2013 15:26 17,2 C 16,8 C 69 % 997,0 hPa 0,0 l/m 2 min 0 min 0,0 UV-I 237 W/m 2,6 km/h (1 Bft)
08.03.2013 15:28 17,3 C 16,8 C 68 % 997,1 hPa 0,0 l/m 2 min 0 min 0,0 UV-I 234 W/m 12,9 km/h (3 Bft)
08.03.2013 15:30 17,3 C 16,8 C 68 % 997,0 hPa 0,0 l/m 2 min 0 min 0,0 UV-I 229 W/m 10,3 km/h (2 Bft)
08.03.2013 15:32 17,3 C 16,2 C 67 % 997,0 hPa 0,0 l/m 0 min 0 min 0,0 UV-I 188 W/m 12,9 km/h (3 Bft)
08.03.2013 15:34 17,3 C 16,2 C 67 % 997,0 hPa 0,0 l/m 0 min 0 min 0,0 UV-I 176 W/m 12,9 km/h (3 Bft)
08.03.2013 15:36 17,4 C 16,2 C 67 % 996,9 hPa 0,0 l/m 0 min 0 min 0,0 UV-I 169 W/m 7,7 km/h (2 Bft)
08.03.2013 15:38 17,3 C 16,2 C 67 % 997,0 hPa 0,0 l/m 0 min 0 min 0,0 UV-I 158 W/m 2,6 km/h (1 Bft)
08.03.2013 15:40 17,3 C 16,2 C 67 % 997,0 hPa 0,0 l/m 0 min 0 min 0,0 UV-I 153 W/m 7,7 km/h (2 Bft)
08.03.2013 15:42 17,4 C 16,2 C 68 % 996,9 hPa 0,0 l/m 0 min 0 min 0,0 UV-I 144 W/m 2,6 km/h (1 Bft)
08.03.2013 15:44 17,3 C 16,2 C 67 % 996,9 hPa 0,0 l/m 0 min 0 min 0,0 UV-I 125 W/m 7,7 km/h (2 Bft)
08.03.2013 15:46 17,3 C 15,7 C 67 % 996,9 hPa 0,0 l/m 0 min 0 min 0,0 UV-I 111 W/m 10,3 km/h (2 Bft)
08.03.2013 15:48 17,3 C 15,7 C 68 % 996,9 hPa 0,0 l/m 0 min 0 min 0,0 UV-I 90 W/m 5,1 km/h (1 Bft)
08.03.2013 15:50 17,3 C 15,7 C 67 % 997,0 hPa 0,0 l/m 0 min 0 min 0,0 UV-I 65 W/m 18,0 km/h (3 Bft)
08.03.2013 15:52 17,3 C 15,7 C 67 % 997,0 hPa 0,0 l/m 0 min 0 min 0,0 UV-I 56 W/m 12,9 km/h (3 Bft)
08.03.2013 15:54 17,2 C 15,1 C 67 % 996,9 hPa 0,0 l/m 0 min 0 min 0,0 UV-I 49 W/m 10,3 km/h (2 Bft)
08.03.2013 15:56 17,2 C 15,1 C 67 % 996,9 hPa 0,0 l/m 0 min 0 min 0,0 UV-I 42 W/m 12,9 km/h (3 Bft)
08.03.2013 15:58 17,2 C 15,1 C 67 % 996,9 hPa 0,0 l/m 0 min 0 min 0,0 UV-I 39 W/m 10,3 km/h (2 Bft)
08.03.2013 16:00 17,1 C 15,1 C 66 % 997,0 hPa 0,0 l/m 0 min 0 min 0,0 UV-I 37 W/m 18,0 km/h (3 Bft)
08.03.2013 16:02 17,1 C 14,6 C 67 % 997,0 hPa 0,0 l/m 0 min 0 min 0,0 UV-I 33 W/m 10,3 km/h (2 Bft)
08.03.2013 16:04 17,1 C 14,6 C 66 % 997,0 hPa 0,0 l/m 0 min 0 min 0,0 UV-I 33 W/m 10,3 km/h (2 Bft)
08.03.2013 16:06 17,0 C 14,6 C 66 % 997,0 hPa 0,0 l/m 0 min 0 min 0,0 UV-I 33 W/m 12,9 km/h (3 Bft)
08.03.2013 16:08 16,9 C 14,6 C 67 % 997,0 hPa 0,0 l/m 0 min 0 min 0,0 UV-I 30 W/m 7,7 km/h (2 Bft)
08.03.2013 16:10 16,9 C 14,6 C 67 % 997,1 hPa 0,0 l/m 0 min 0 min 0,0 UV-I 28 W/m 15,4 km/h (3 Bft)
08.03.2013 16:12 16,9 C 14,6 C 67 % 997,0 hPa 0,0 l/m 0 min 0 min 0,0 UV-I 26 W/m 10,3 km/h (2 Bft)
08.03.2013 16:14 16,8 C 14,6 C 67 % 997,0 hPa 0,0 l/m 0 min 0 min 0,0 UV-I 25 W/m 12,9 km/h (3 Bft)
08.03.2013 16:16 16,8 C 14,6 C 67 % 997,1 hPa 0,0 l/m 0 min 0 min 0,0 UV-I 25 W/m 12,9 km/h (3 Bft)
08.03.2013 16:18 16,7 C 14,6 C 67 % 997,1 hPa 0,0 l/m 0 min 0 min 0,0 UV-I 26 W/m 7,7 km/h (2 Bft)
08.03.2013 16:20 16,7 C 14,6 C 67 % 997,1 hPa 0,0 l/m 0 min 0 min 0,0 UV-I 28 W/m 2,6 km/h (1 Bft)
08.03.2013 16:22 16,7 C 14,6 C 67 % 997,0 hPa 0,0 l/m 0 min 0 min 0,0 UV-I 28 W/m 7,7 km/h (2 Bft)
08.03.2013 16:24 16,7 C 14,6 C 67 % 996,9 hPa 0,0 l/m 0 min 0 min 0,0 UV-I 26 W/m 15,4 km/h (3 Bft)
08.03.2013 16:26 16,6 C 14,0 C 67 % 996,9 hPa 0,0 l/m 0 min 0 min 0,0 UV-I 19 W/m 7,7 km/h (2 Bft)
08.03.2013 16:28 16,6 C 14,0 C 67 % 997,0 hPa 0,0 l/m 0 min 0 min 0,0 UV-I 18 W/m 7,7 km/h (2 Bft)
08.03.2013 16:30 16,6 C 14,0 C 68 % 997,0 hPa 0,0 l/m 0 min 0 min 0,0 UV-I 18 W/m 5,1 km/h (1 Bft)
08.03.2013 16:32 16,5 C 14,0 C 68 % 997,1 hPa 0,0 l/m 0 min 0 min 0,0 UV-I 19 W/m 2,6 km/h (1 Bft)
08.03.2013 16:34 16,5 C 14,0 C 68 % 997,0 hPa 0,0 l/m 0 min 0 min 0,0 UV-I 21 W/m 2,6 km/h (1 Bft)
08.03.2013 16:36 16,4 C 14,0 C 68 % 997,0 hPa 0,0 l/m 0 min 0 min 0,0 UV-I 23 W/m 7,7 km/h (2 Bft)
08.03.2013 16:38 16,4 C 14,0 C 68 % 997,1 hPa 0,0 l/m 0 min 0 min 0,0 UV-I 26 W/m 5,1 km/h (1 Bft)
08.03.2013 16:40 16,4 C 14,0 C 68 % 997,0 hPa 0,0 l/m 0 min 0 min 0,0 UV-I 28 W/m 12,9 km/h (3 Bft)
08.03.2013 16:42 16,4 C 14,0 C 68 % 996,9 hPa 0,0 l/m 0 min 0 min 0,0 UV-I 30 W/m 2,6 km/h (1 Bft)
08.03.2013 16:44 16,4 C 14,0 C 68 % 996,9 hPa 0,0 l/m 0 min 0 min 0,0 UV-I 32 W/m 0,0 km/h (0 Bft)
08.03.2013 16:46 16,3 C 14,0 C 69 % 997,0 hPa 0,0 l/m 0 min 0 min 0,0 UV-I 32 W/m 2,6 km/h (1 Bft)
08.03.2013 16:48 16,3 C 14,0 C 69 % 997,0 hPa 0,0 l/m 0 min 0 min 0,0 UV-I 30 W/m 10,3 km/h (2 Bft)
08.03.2013 16:50 16,3 C 14,0 C 69 % 997,0 hPa 0,0 l/m 0 min 0 min 0,0 UV-I 28 W/m 2,6 km/h (1 Bft)
08.03.2013 16:52 16,3 C 13,4 C 69 % 997,0 hPa 0,0 l/m 0 min 0 min 0,0 UV-I 28 W/m 10,3 km/h (2 Bft)
08.03.2013 16:54 16,3 C 13,4 C 69 % 996,9 hPa 0,0 l/m 0 min 0 min 0,0 UV-I 25 W/m 5,1 km/h (1 Bft)
08.03.2013 16:56 16,3 C 14,0 C 69 % 996,9 hPa 0,0 l/m 0 min 0 min 0,0 UV-I 25 W/m 5,1 km/h (1 Bft)
08.03.2013 16:58 16,2 C 14,0 C 69 % 996,9 hPa 0,0 l/m 0 min 0 min 0,0 UV-I 25 W/m 0,0 km/h (0 Bft)
08.03.2013 17:00 16,2 C 13,4 C 70 % 996,9 hPa 0,0 l/m 0 min 0 min 0,0 UV-I 21 W/m 0,0 km/h (0 Bft)
08.03.2013 17:02 16,2 C 13,4 C 70 % 996,9 hPa 0,0 l/m 0 min 0 min 0,0 UV-I 21 W/m 0,0 km/h (0 Bft)
08.03.2013 17:04 16,2 C 13,4 C 70 % 997,0 hPa 0,0 l/m 0 min 0 min 0,0 UV-I 19 W/m 0,0 km/h (0 Bft)
08.03.2013 17:06 16,2 C 13,4 C 70 % 996,9 hPa 0,0 l/m 0 min 0 min 0,0 UV-I 19 W/m 0,0 km/h (0 Bft)
08.03.2013 17:08 16,2 C 12,9 C 71 % 996,9 hPa 0,0 l/m 0 min 0 min 0,0 UV-I 19 W/m 0,0 km/h (0 Bft)
08.03.2013 17:10 16,2 C 12,9 C 71 % 997,0 hPa 0,0 l/m 0 min 0 min 0,0 UV-I 18 W/m 0,0 km/h (0 Bft)
08.03.2013 17:12 16,2 C 12,9 C 71 % 997,0 hPa 0,0 l/m 0 min 0 min 0,0 UV-I 14 W/m 0,0 km/h (0 Bft)
08.03.2013 17:14 16,1 C 12,9 C 72 % 996,9 hPa 0,0 l/m 0 min 0 min 0,0 UV-I 12 W/m 0,0 km/h (0 Bft)
08.03.2013 17:16 16,1 C 12,9 C 73 % 996,9 hPa 0,0 l/m 0 min 0 min 0,0 UV-I 12 W/m 0,0 km/h (0 Bft)
08.03.2013 17:18 16,1 C 12,9 C 73 % 997,0 hPa 0,0 l/m 0 min 0 min 0,0 UV-I 12 W/m 7,7 km/h (2 Bft)
08.03.2013 17:20 16,0 C 12,9 C 74 % 996,9 hPa 0,0 l/m 0 min 0 min 0,0 UV-I 12 W/m 7,7 km/h (2 Bft)
08.03.2013 17:22 15,9 C 12,9 C 74 % 997,0 hPa 0,0 l/m 0 min 0 min 0,0 UV-I 14 W/m 0,0 km/h (0 Bft)
08.03.2013 17:24 15,9 C 12,9 C 74 % 997,1 hPa 0,0 l/m 0 min 0 min 0,0 UV-I 14 W/m 0,0 km/h (0 Bft)
08.03.2013 17:26 15,8 C 12,9 C 74 % 997,0 hPa 0,0 l/m 0 min 0 min 0,0 UV-I 14 W/m 0,0 km/h (0 Bft)
08.03.2013 17:28 15,8 C 12,9 C 75 % 997,0 hPa 0,0 l/m 0 min 0 min 0,0 UV-I 14 W/m 0,0 km/h (0 Bft)
08.03.2013 17:30 15,8 C 12,9 C 75 % 996,9 hPa 0,0 l/m 0 min 0 min 0,0 UV-I 12 W/m 0,0 km/h (0 Bft)
08.03.2013 17:32 15,7 C 12,3 C 75 % 997,0 hPa 0,0 l/m 0 min 0 min 0,0 UV-I 12 W/m 0,0 km/h (0 Bft)
08.03.2013 17:34 15,7 C 12,3 C 75 % 997,1 hPa 0,0 l/m 0 min 0 min 0,0 UV-I 12 W/m 2,6 km/h (1 Bft)
08.03.2013 17:36 15,7 C 12,3 C 76 % 997,2 hPa 0,0 l/m 0 min 0 min 0,0 UV-I 12 W/m 0,0 km/h (0 Bft)
08.03.2013 17:38 15,6 C 12,3 C 76 % 997,2 hPa 0,0 l/m 0 min 0 min 0,0 UV-I 12 W/m 0,0 km/h (0 Bft)
08.03.2013 17:40 15,6 C 12,3 C 76 % 997,2 hPa 0,0 l/m 0 min 0 min 0,0 UV-I 12 W/m 0,0 km/h (0 Bft)
08.03.2013 17:42 15,5 C 12,3 C 76 % 997,1 hPa 0,0 l/m 0 min 0 min 0,0 UV-I 12 W/m 5,1 km/h (1 Bft)
08.03.2013 17:44 15,4 C 12,9 C 76 % 997,1 hPa 0,0 l/m 0 min 0 min 0,0 UV-I 11 W/m 10,3 km/h (2 Bft)
08.03.2013 17:46 15,4 C 12,9 C 76 % 997,2 hPa 0,0 l/m 0 min 0 min 0,0 UV-I 11 W/m 5,1 km/h (1 Bft)
08.03.2013 17:48 15,3 C 12,9 C 77 % 997,1 hPa 0,0 l/m 0 min 0 min 0,0 UV-I 9 W/m 7,7 km/h (2 Bft)
08.03.2013 17:50 15,3 C 12,3 C 77 % 997,2 hPa 0,0 l/m 0 min 0 min 0,0 UV-I 7 W/m 5,1 km/h (1 Bft)
08.03.2013 17:52 15,3 C 12,3 C 77 % 997,3 hPa 0,0 l/m 0 min 0 min 0,0 UV-I 7 W/m 5,1 km/h (1 Bft)
08.03.2013 17:54 15,2 C 12,3 C 77 % 997,2 hPa 0,0 l/m 0 min 0 min 0,0 UV-I 7 W/m 0,0 km/h (0 Bft)
08.03.2013 17:56 15,1 C 12,3 C 78 % 997,3 hPa 0,0 l/m 0 min 0 min 0,0 UV-I 7 W/m 0,0 km/h (0 Bft)
08.03.2013 17:58 15,1 C 12,3 C 78 % 997,2 hPa 0,0 l/m 0 min 0 min 0,0 UV-I 7 W/m 0,0 km/h (0 Bft)
08.03.2013 18:00 15,0 C 12,3 C 78 % 997,3 hPa 0,0 l/m 0 min 0 min 0,0 UV-I 7 W/m 0,0 km/h (0 Bft)
08.03.2013 18:02 15,0 C 12,3 C 78 % 997,2 hPa 0,0 l/m 0 min 0 min 0,0 UV-I 7 W/m 0,0 km/h (0 Bft)
08.03.2013 18:06 15,0 C 12,3 C 78 % 997,3 hPa 0,0 l/m 0 min 0 min 0,0 UV-I 7 W/m 0,0 km/h (0 Bft)
08.03.2013 18:08 15,0 C 11,8 C 78 % 997,3 hPa 0,0 l/m 0 min 0 min 0,0 UV-I 5 W/m 0,0 km/h (0 Bft)
08.03.2013 18:10 15,0 C 11,8 C 78 % 997,3 hPa 0,0 l/m 0 min 0 min 0,0 UV-I 5 W/m 0,0 km/h (0 Bft)
08.03.2013 18:12 15,0 C 11,8 C 78 % 997,3 hPa 0,0 l/m 0 min 0 min 0,0 UV-I 5 W/m 0,0 km/h (0 Bft)
08.03.2013 18:14 15,0 C 11,8 C 78 % 997,4 hPa 0,0 l/m 0 min 0 min 0,0 UV-I 0 W/m 0,0 km/h (0 Bft)
08.03.2013 18:16 15,0 C 11,8 C 78 % 997,4 hPa 0,0 l/m 0 min 0 min 0,0 UV-I 0 W/m 0,0 km/h (0 Bft)
08.03.2013 18:18 15,0 C 11,8 C 78 % 997,4 hPa 0,0 l/m 0 min 0 min 0,0 UV-I 0 W/m 0,0 km/h (0 Bft)
08.03.2013 18:20 14,9 C 11,8 C 77 % 997,4 hPa 0,0 l/m 0 min 0 min 0,0 UV-I 0 W/m 0,0 km/h (0 Bft)
08.03.2013 18:22 14,9 C 11,8 C 77 % 997,4 hPa 0,0 l/m 0 min 0 min 0,0 UV-I 0 W/m 0,0 km/h (0 Bft)
08.03.2013 18:24 14,8 C 11,8 C 77 % 997,4 hPa 0,0 l/m 0 min 0 min 0,0 UV-I 0 W/m 0,0 km/h (0 Bft)
08.03.2013 18:26 14,8 C 11,8 C 77 % 997,4 hPa 0,0 l/m 0 min 0 min 0,0 UV-I 0 W/m 0,0 km/h (0 Bft)
08.03.2013 18:28 14,8 C 12,3 C 77 % 997,5 hPa 0,0 l/m 0 min 0 min 0,0 UV-I 0 W/m 0,0 km/h (0 Bft)
08.03.2013 18:30 14,8 C 12,3 C 77 % 997,6 hPa 0,0 l/m 0 min 0 min 0,0 UV-I 0 W/m 0,0 km/h (0 Bft)
08.03.2013 18:32 14,8 C 12,3 C 77 % 997,5 hPa 0,0 l/m 0 min 0 min 0,0 UV-I 0 W/m 5,1 km/h (1 Bft)
08.03.2013 18:34 14,8 C 12,3 C 78 % 997,6 hPa 0,0 l/m 0 min 0 min 0,0 UV-I 0 W/m 0,0 km/h (0 Bft)
08.03.2013 18:36 14,8 C 12,3 C 78 % 997,6 hPa 0,0 l/m 0 min 0 min 0,0 UV-I 0 W/m 2,6 km/h (1 Bft)
08.03.2013 18:38 14,7 C 12,3 C 79 % 997,6 hPa 0,0 l/m 0 min 0 min 0,0 UV-I 0 W/m 2,6 km/h (1 Bft)
08.03.2013 18:40 14,7 C 12,3 C 79 % 997,6 hPa 0,0 l/m 0 min 0 min 0,0 UV-I 0 W/m 0,0 km/h (0 Bft)
08.03.2013 18:42 14,7 C 11,8 C 79 % 997,6 hPa 0,0 l/m 0 min 0 min 0,0 UV-I 0 W/m 0,0 km/h (0 Bft)
08.03.2013 18:44 14,7 C 11,8 C 79 % 997,6 hPa 0,0 l/m 0 min 0 min 0,0 UV-I 0 W/m 0,0 km/h (0 Bft)
08.03.2013 18:46 14,7 C 11,8 C 79 % 997,7 hPa 0,0 l/m 0 min 0 min 0,0 UV-I 0 W/m 0,0 km/h (0 Bft)
08.03.2013 18:48 14,7 C 11,8 C 79 % 997,8 hPa 0,0 l/m 0 min 0 min 0,0 UV-I 0 W/m 0,0 km/h (0 Bft)
08.03.2013 18:50 14,7 C 11,8 C 79 % 997,8 hPa 0,0 l/m 0 min 0 min 0,0 UV-I 0 W/m 0,0 km/h (0 Bft)
08.03.2013 18:52 14,6 C 11,8 C 79 % 997,8 hPa 0,0 l/m 0 min 0 min 0,0 UV-I 0 W/m 0,0 km/h (0 Bft)
08.03.2013 18:54 14,6 C 11,8 C 79 % 997,8 hPa 0,0 l/m 0 min 0 min 0,0 UV-I 0 W/m 0,0 km/h (0 Bft)
08.03.2013 18:56 14,6 C 11,8 C 80 % 997,9 hPa 0,0 l/m 0 min 0 min 0,0 UV-I 0 W/m 2,6 km/h (1 Bft)
08.03.2013 18:58 14,5 C 11,8 C 80 % 997,9 hPa 0,0 l/m 0 min 0 min 0,0 UV-I 0 W/m 10,3 km/h (2 Bft)
08.03.2013 19:00 14,4 C 11,8 C 80 % 997,9 hPa 0,0 l/m 0 min 0 min 0,0 UV-I 0 W/m 18,0 km/h (3 Bft)
08.03.2013 19:02 14,4 C 11,2 C 81 % 998,0 hPa 0,0 l/m 0 min 2 min 0,0 UV-I 0 W/m 2,6 km/h (1 Bft)
08.03.2013 19:04 14,4 C 11,2 C 81 % 998,0 hPa 0,0 l/m 0 min 0 min 0,0 UV-I 0 W/m 0,0 km/h (0 Bft)
08.03.2013 19:06 14,3 C 11,2 C 82 % 998,0 hPa 0,0 l/m 0 min 0 min 0,0 UV-I 0 W/m 0,0 km/h (0 Bft)
08.03.2013 19:08 14,3 C 11,2 C 82 % 998,0 hPa 0,0 l/m 0 min 0 min 0,0 UV-I 0 W/m 0,0 km/h (0 Bft)
08.03.2013 19:10 14,3 C 11,2 C 82 % 998,1 hPa 0,0 l/m 0 min 0 min 0,0 UV-I 0 W/m 2,6 km/h (1 Bft)
08.03.2013 19:12 14,2 C 11,2 C 82 % 998,0 hPa 0,0 l/m 0 min 0 min 0,0 UV-I 0 W/m 7,7 km/h (2 Bft)
08.03.2013 19:14 14,2 C 11,2 C 82 % 998,0 hPa 0,0 l/m 0 min 2 min 0,0 UV-I 0 W/m 10,3 km/h (2 Bft)
08.03.2013 19:16 14,2 C 11,2 C 82 % 998,0 hPa 0,0 l/m 0 min 0 min 0,0 UV-I 0 W/m 15,4 km/h (3 Bft)
08.03.2013 19:18 14,1 C 11,2 C 82 % 998,1 hPa 0,0 l/m 0 min 0 min 0,0 UV-I 0 W/m 10,3 km/h (2 Bft)
08.03.2013 19:20 14,1 C 11,2 C 82 % 998,1 hPa 0,0 l/m 0 min 0 min 0,0 UV-I 0 W/m 12,9 km/h (3 Bft)
08.03.2013 19:22 14,1 C 11,2 C 82 % 998,1 hPa 0,0 l/m 0 min 0 min 0,0 UV-I 0 W/m 15,4 km/h (3 Bft)
08.03.2013 19:24 14,0 C 11,2 C 82 % 998,1 hPa 0,0 l/m 0 min 2 min 0,0 UV-I 0 W/m 10,3 km/h (2 Bft)
08.03.2013 19:26 14,0 C 10,7 C 83 % 998,2 hPa 0,0 l/m 0 min 2 min 0,0 UV-I 0 W/m 15,4 km/h (3 Bft)
08.03.2013 19:28 13,9 C 10,7 C 83 % 998,2 hPa 0,0 l/m 0 min 2 min 0,0 UV-I 0 W/m 15,4 km/h (3 Bft)
08.03.2013 19:30 13,9 C 10,7 C 84 % 998,2 hPa 0,0 l/m 0 min 2 min 0,0 UV-I 0 W/m 7,7 km/h (2 Bft)
08.03.2013 19:32 13,9 C 10,7 C 84 % 998,2 hPa 0,0 l/m 0 min 2 min 0,0 UV-I 0 W/m 5,1 km/h (1 Bft)
08.03.2013 19:34 13,8 C 10,1 C 84 % 998,2 hPa 0,0 l/m 0 min 2 min 0,0 UV-I 0 W/m 7,7 km/h (2 Bft)
08.03.2013 19:36 13,8 C 10,1 C 85 % 998,2 hPa 0,0 l/m 0 min 0 min 0,0 UV-I 0 W/m 7,7 km/h (2 Bft)
08.03.2013 19:38 13,8 C 10,1 C 85 % 998,3 hPa 0,0 l/m 0 min 0 min 0,0 UV-I 0 W/m 5,1 km/h (1 Bft)
08.03.2013 19:40 13,7 C 10,1 C 85 % 998,3 hPa 0,0 l/m 0 min 2 min 0,0 UV-I 0 W/m 5,1 km/h (1 Bft)
08.03.2013 19:42 13,7 C 10,1 C 85 % 998,3 hPa 0,0 l/m 0 min 2 min 0,0 UV-I 0 W/m 2,6 km/h (1 Bft)
08.03.2013 19:44 13,7 C 10,1 C 85 % 998,3 hPa 0,0 l/m 0 min 2 min 0,0 UV-I 0 W/m 10,3 km/h (2 Bft)
08.03.2013 19:46 13,6 C 10,1 C 86 % 998,3 hPa 0,2 l/m 0 min 2 min 0,0 UV-I 0 W/m 2,6 km/h (1 Bft)
08.03.2013 19:48 13,6 C 10,1 C 86 % 998,3 hPa 0,0 l/m 0 min 2 min 0,0 UV-I 0 W/m 5,1 km/h (1 Bft)
08.03.2013 19:50 13,5 C 10,1 C 86 % 998,4 hPa 0,0 l/m 0 min 2 min 0,0 UV-I 0 W/m 7,7 km/h (2 Bft)
08.03.2013 19:52 13,4 C 10,1 C 87 % 998,3 hPa 0,0 l/m 0 min 2 min 0,0 UV-I 0 W/m 7,7 km/h (2 Bft)
08.03.2013 19:54 13,4 C 10,1 C 87 % 998,3 hPa 0,0 l/m 0 min 2 min 0,0 UV-I 0 W/m 0,0 km/h (0 Bft)
08.03.2013 19:56 13,4 C 10,1 C 87 % 998,3 hPa 0,0 l/m 0 min 2 min 0,0 UV-I 0 W/m 0,0 km/h (0 Bft)
08.03.2013 19:58 13,3 C 10,1 C 87 % 998,3 hPa 0,0 l/m 0 min 2 min 0,0 UV-I 0 W/m 2,6 km/h (1 Bft)
08.03.2013 20:00 13,3 C 10,1 C 88 % 998,3 hPa 0,0 l/m 0 min 2 min 0,0 UV-I 0 W/m 0,0 km/h (0 Bft)
08.03.2013 20:02 13,3 C 10,1 C 88 % 998,3 hPa 0,0 l/m 0 min 2 min 0,0 UV-I 0 W/m 7,7 km/h (2 Bft)
08.03.2013 20:04 13,3 C 10,1 C 88 % 998,3 hPa 0,0 l/m 0 min 2 min 0,0 UV-I 0 W/m 0,0 km/h (0 Bft)
08.03.2013 20:06 13,2 C 10,1 C 88 % 998,4 hPa 0,0 l/m 0 min 2 min 0,0 UV-I 0 W/m 0,0 km/h (0 Bft)
08.03.2013 20:08 13,2 C 10,1 C 89 % 998,4 hPa 0,0 l/m 0 min 2 min 0,0 UV-I 0 W/m 2,6 km/h (1 Bft)
08.03.2013 20:10 13,2 C 10,1 C 89 % 998,4 hPa 0,2 l/m 0 min 2 min 0,0 UV-I 0 W/m 0,0 km/h (0 Bft)
08.03.2013 20:12 13,2 C 10,1 C 89 % 998,4 hPa 0,0 l/m 0 min 2 min 0,0 UV-I 0 W/m 0,0 km/h (0 Bft)
08.03.2013 20:14 13,1 C 10,1 C 89 % 998,4 hPa 0,0 l/m 0 min 2 min 0,0 UV-I 0 W/m 0,0 km/h (0 Bft)
08.03.2013 20:16 13,1 C 10,1 C 89 % 998,4 hPa 0,0 l/m 0 min 2 min 0,0 UV-I 0 W/m 0,0 km/h (0 Bft)
08.03.2013 20:18 13,1 C 10,1 C 89 % 998,4 hPa 0,0 l/m 0 min 0 min 0,0 UV-I 0 W/m 0,0 km/h (0 Bft)
08.03.2013 20:20 13,1 C 10,1 C 89 % 998,4 hPa 0,0 l/m 0 min 0 min 0,0 UV-I 0 W/m 0,0 km/h (0 Bft)
08.03.2013 20:22 13,0 C 10,1 C 89 % 998,3 hPa 0,0 l/m 0 min 0 min 0,0 UV-I 0 W/m 0,0 km/h (0 Bft)
08.03.2013 20:24 13,0 C 10,1 C 89 % 998,3 hPa 0,0 l/m 0 min 0 min 0,0 UV-I 0 W/m 0,0 km/h (0 Bft)
08.03.2013 20:26 12,9 C 9,6 C 89 % 998,4 hPa 0,0 l/m 0 min 0 min 0,0 UV-I 0 W/m 0,0 km/h (0 Bft)
08.03.2013 20:28 12,9 C 9,6 C 89 % 998,3 hPa 0,0 l/m 0 min 0 min 0,0 UV-I 0 W/m 0,0 km/h (0 Bft)
08.03.2013 20:30 12,9 C 9,6 C 89 % 998,3 hPa 0,0 l/m 0 min 0 min 0,0 UV-I 0 W/m 0,0 km/h (0 Bft)
08.03.2013 20:32 12,8 C 9,6 C 89 % 998,3 hPa 0,0 l/m 0 min 0 min 0,0 UV-I 0 W/m 0,0 km/h (0 Bft)
08.03.2013 20:34 12,8 C 9,6 C 89 % 998,3 hPa 0,0 l/m 0 min 0 min 0,0 UV-I 0 W/m 0,0 km/h (0 Bft)
08.03.2013 20:36 12,8 C 9,6 C 89 % 998,3 hPa 0,0 l/m 0 min 0 min 0,0 UV-I 0 W/m 0,0 km/h (0 Bft)
08.03.2013 20:38 12,8 C 9,6 C 89 % 998,3 hPa 0,0 l/m 0 min 0 min 0,0 UV-I 0 W/m 0,0 km/h (0 Bft)
08.03.2013 20:40 12,7 C 9,6 C 90 % 998,3 hPa 0,0 l/m 0 min 0 min 0,0 UV-I 0 W/m 0,0 km/h (0 Bft)
08.03.2013 20:42 12,7 C 9,6 C 89 % 998,3 hPa 0,0 l/m 0 min 0 min 0,0 UV-I 0 W/m 0,0 km/h (0 Bft)
08.03.2013 20:44 12,7 C 9,6 C 89 % 998,3 hPa 0,0 l/m 0 min 0 min 0,0 UV-I 0 W/m 0,0 km/h (0 Bft)
08.03.2013 20:46 12,7 C 9,6 C 90 % 998,3 hPa 0,0 l/m 0 min 0 min 0,0 UV-I 0 W/m 0,0 km/h (0 Bft)
08.03.2013 20:48 12,6 C 9,6 C 90 % 998,3 hPa 0,0 l/m 0 min 0 min 0,0 UV-I 0 W/m 0,0 km/h (0 Bft)
08.03.2013 20:50 12,6 C 9,6 C 90 % 998,3 hPa 0,0 l/m 0 min 0 min 0,0 UV-I 0 W/m 0,0 km/h (0 Bft)
08.03.2013 20:52 12,6 C 9,6 C 90 % 998,3 hPa 0,0 l/m 0 min 0 min 0,0 UV-I 0 W/m 0,0 km/h (0 Bft)
08.03.2013 20:54 12,6 C 10,1 C 91 % 998,3 hPa 0,0 l/m 0 min 0 min 0,0 UV-I 0 W/m 0,0 km/h (0 Bft)
08.03.2013 20:56 12,5 C 10,1 C 91 % 998,3 hPa 0,0 l/m 0 min 2 min 0,0 UV-I 0 W/m 0,0 km/h (0 Bft)
08.03.2013 20:58 12,5 C 10,1 C 91 % 998,3 hPa 0,0 l/m 0 min 2 min 0,0 UV-I 0 W/m 0,0 km/h (0 Bft)
08.03.2013 21:00 12,4 C 10,1 C 91 % 998,4 hPa 0,0 l/m 0 min 2 min 0,0 UV-I 0 W/m 0,0 km/h (0 Bft)
08.03.2013 21:02 12,4 C 9,6 C 91 % 998,4 hPa 0,0 l/m 0 min 0 min 0,0 UV-I 0 W/m 0,0 km/h (0 Bft)
08.03.2013 21:06 12,4 C 9,6 C 91 % 998,3 hPa 0,0 l/m 0 min 2 min 0,0 UV-I 0 W/m 0,0 km/h (0 Bft)
08.03.2013 21:08 12,4 C 9,6 C 91 % 998,3 hPa 0,0 l/m 0 min 2 min 0,0 UV-I 0 W/m 0,0 km/h (0 Bft)
08.03.2013 21:10 12,3 C 9,6 C 91 % 998,4 hPa 0,0 l/m 0 min 2 min 0,0 UV-I 0 W/m 0,0 km/h (0 Bft)
08.03.2013 21:12 12,3 C 9,6 C 91 % 998,4 hPa 0,0 l/m 0 min 2 min 0,0 UV-I 0 W/m 0,0 km/h (0 Bft)
08.03.2013 21:14 12,3 C 9,6 C 91 % 998,3 hPa 0,0 l/m 0 min 2 min 0,0 UV-I 0 W/m 0,0 km/h (0 Bft)
08.03.2013 21:16 12,3 C 9,6 C 91 % 998,3 hPa 0,0 l/m 0 min 2 min 0,0 UV-I 0 W/m 0,0 km/h (0 Bft)
08.03.2013 21:18 12,3 C 9,6 C 91 % 998,3 hPa 0,0 l/m 0 min 2 min 0,0 UV-I 0 W/m 0,0 km/h (0 Bft)
08.03.2013 21:20 12,2 C 9,6 C 92 % 998,3 hPa 0,0 l/m 0 min 2 min 0,0 UV-I 0 W/m 0,0 km/h (0 Bft)
08.03.2013 21:22 12,2 C 9,6 C 92 % 998,3 hPa 0,2 l/m 0 min 2 min 0,0 UV-I 0 W/m 0,0 km/h (0 Bft)
08.03.2013 21:24 12,2 C 9,6 C 92 % 998,3 hPa 0,0 l/m 0 min 2 min 0,0 UV-I 0 W/m 0,0 km/h (0 Bft)
08.03.2013 21:26 12,2 C 9,6 C 92 % 998,3 hPa 0,0 l/m 0 min 2 min 0,0 UV-I 0 W/m 0,0 km/h (0 Bft)
08.03.2013 21:28 12,2 C 9,6 C 92 % 998,3 hPa 0,0 l/m 0 min 2 min 0,0 UV-I 0 W/m 0,0 km/h (0 Bft)
08.03.2013 21:30 12,1 C 9,6 C 92 % 998,3 hPa 0,0 l/m 0 min 2 min 0,0 UV-I 0 W/m 0,0 km/h (0 Bft)
08.03.2013 21:32 12,1 C 9,6 C 92 % 998,3 hPa 0,0 l/m 0 min 2 min 0,0 UV-I 0 W/m 0,0 km/h (0 Bft)
08.03.2013 21:34 12,1 C 9,6 C 92 % 998,3 hPa 0,0 l/m 0 min 0 min 0,0 UV-I 0 W/m 0,0 km/h (0 Bft)
08.03.2013 21:36 12,1 C 9,6 C 92 % 998,3 hPa 0,0 l/m 0 min 2 min 0,0 UV-I 0 W/m 0,0 km/h (0 Bft)
08.03.2013 21:38 12,1 C 9,6 C 92 % 998,3 hPa 0,0 l/m 0 min 0 min 0,0 UV-I 0 W/m 0,0 km/h (0 Bft)
08.03.2013 21:40 12,1 C 9,6 C 92 % 998,3 hPa 0,0 l/m 0 min 0 min 0,0 UV-I 0 W/m 0,0 km/h (0 Bft)
08.03.2013 21:42 12,1 C 9,6 C 92 % 998,3 hPa 0,0 l/m 0 min 0 min 0,0 UV-I 0 W/m 0,0 km/h (0 Bft)
08.03.2013 21:44 12,1 C 9,6 C 92 % 998,3 hPa 0,0 l/m 0 min 0 min 0,0 UV-I 0 W/m 0,0 km/h (0 Bft)
08.03.2013 21:46 12,0 C 9,6 C 92 % 998,3 hPa 0,0 l/m 0 min 0 min 0,0 UV-I 0 W/m 0,0 km/h (0 Bft)
08.03.2013 21:48 12,0 C 9,6 C 92 % 998,3 hPa 0,0 l/m 0 min 0 min 0,0 UV-I 0 W/m 0,0 km/h (0 Bft)
08.03.2013 21:50 12,0 C 9,6 C 92 % 998,3 hPa 0,0 l/m 0 min 0 min 0,0 UV-I 0 W/m 0,0 km/h (0 Bft)
08.03.2013 21:52 11,9 C 9,6 C 93 % 998,3 hPa 0,0 l/m 0 min 0 min 0,0 UV-I 0 W/m 0,0 km/h (0 Bft)
08.03.2013 21:54 11,9 C 9,6 C 93 % 998,3 hPa 0,0 l/m 0 min 0 min 0,0 UV-I 0 W/m 0,0 km/h (0 Bft)
08.03.2013 21:56 11,9 C 9,6 C 93 % 998,3 hPa 0,0 l/m 0 min 0 min 0,0 UV-I 0 W/m 0,0 km/h (0 Bft)
08.03.2013 21:58 11,9 C 9,6 C 93 % 998,3 hPa 0,0 l/m 0 min 0 min 0,0 UV-I 0 W/m 0,0 km/h (0 Bft)
08.03.2013 22:00 11,9 C 9,6 C 93 % 998,3 hPa 0,0 l/m 0 min 0 min 0,0 UV-I 0 W/m 0,0 km/h (0 Bft)
08.03.2013 22:02 11,9 C 9,6 C 93 % 998,4 hPa 0,0 l/m 0 min 0 min 0,0 UV-I 0 W/m 0,0 km/h (0 Bft)
08.03.2013 22:04 11,9 C 9,6 C 93 % 998,4 hPa 0,0 l/m 0 min 0 min 0,0 UV-I 0 W/m 5,1 km/h (1 Bft)
08.03.2013 22:06 11,8 C 9,6 C 93 % 998,4 hPa 0,0 l/m 0 min 0 min 0,0 UV-I 0 W/m 2,6 km/h (1 Bft)
08.03.2013 22:08 11,8 C 9,6 C 93 % 998,3 hPa 0,0 l/m 0 min 0 min 0,0 UV-I 0 W/m 0,0 km/h (0 Bft)
08.03.2013 22:10 11,8 C 9,6 C 93 % 998,3 hPa 0,0 l/m 0 min 0 min 0,0 UV-I 0 W/m 2,6 km/h (1 Bft)
08.03.2013 22:12 11,8 C 9,6 C 93 % 998,3 hPa 0,0 l/m 0 min 0 min 0,0 UV-I 0 W/m 7,7 km/h (2 Bft)
08.03.2013 22:14 11,8 C 9,6 C 93 % 998,2 hPa 0,0 l/m 0 min 0 min 0,0 UV-I 0 W/m 0,0 km/h (0 Bft)
08.03.2013 22:16 11,7 C 9,6 C 93 % 998,3 hPa 0,0 l/m 0 min 0 min 0,0 UV-I 0 W/m 0,0 km/h (0 Bft)
08.03.2013 22:18 11,7 C 9,6 C 93 % 998,3 hPa 0,0 l/m 0 min 0 min 0,0 UV-I 0 W/m 5,1 km/h (1 Bft)
08.03.2013 22:20 11,7 C 9,6 C 93 % 998,3 hPa 0,0 l/m 0 min 0 min 0,0 UV-I 0 W/m 0,0 km/h (0 Bft)
08.03.2013 22:22 11,7 C 9,6 C 93 % 998,3 hPa 0,0 l/m 0 min 0 min 0,0 UV-I 0 W/m 7,7 km/h (2 Bft)
08.03.2013 22:24 11,7 C 9,6 C 93 % 998,3 hPa 0,0 l/m 0 min 0 min 0,0 UV-I 0 W/m 5,1 km/h (1 Bft)
08.03.2013 22:26 11,6 C 9,6 C 93 % 998,3 hPa 0,0 l/m 0 min 0 min 0,0 UV-I 0 W/m 7,7 km/h (2 Bft)
08.03.2013 22:28 11,6 C 9,6 C 93 % 998,3 hPa 0,0 l/m 0 min 0 min 0,0 UV-I 0 W/m 10,3 km/h (2 Bft)
08.03.2013 22:30 11,6 C 9,6 C 93 % 998,3 hPa 0,0 l/m 0 min 0 min 0,0 UV-I 0 W/m 7,7 km/h (2 Bft)
08.03.2013 22:32 11,6 C 9,6 C 93 % 998,3 hPa 0,0 l/m 0 min 0 min 0,0 UV-I 0 W/m 0,0 km/h (0 Bft)
08.03.2013 22:34 11,6 C 9,6 C 93 % 998,3 hPa 0,0 l/m 0 min 0 min 0,0 UV-I 0 W/m 10,3 km/h (2 Bft)
08.03.2013 22:36 11,6 C 9,6 C 93 % 998,4 hPa 0,0 l/m 0 min 0 min 0,0 UV-I 0 W/m 7,7 km/h (2 Bft)
08.03.2013 22:38 11,6 C 9,6 C 93 % 998,3 hPa 0,0 l/m 0 min 0 min 0,0 UV-I 0 W/m 15,4 km/h (3 Bft)
08.03.2013 22:40 11,6 C 9,6 C 93 % 998,3 hPa 0,0 l/m 0 min 0 min 0,0 UV-I 0 W/m 7,7 km/h (2 Bft)
08.03.2013 22:42 11,6 C 9,6 C 93 % 998,3 hPa 0,0 l/m 0 min 0 min 0,0 UV-I 0 W/m 10,3 km/h (2 Bft)
08.03.2013 22:44 11,6 C 9,6 C 93 % 998,3 hPa 0,0 l/m 0 min 0 min 0,0 UV-I 0 W/m 7,7 km/h (2 Bft)
08.03.2013 22:46 11,6 C 9,6 C 93 % 998,3 hPa 0,0 l/m 0 min 0 min 0,0 UV-I 0 W/m 12,9 km/h (3 Bft)
08.03.2013 22:48 11,6 C 9,6 C 93 % 998,3 hPa 0,0 l/m 0 min 0 min 0,0 UV-I 0 W/m 10,3 km/h (2 Bft)
08.03.2013 22:50 11,6 C 9,6 C 93 % 998,3 hPa 0,0 l/m 0 min 0 min 0,0 UV-I 0 W/m 7,7 km/h (2 Bft)
08.03.2013 22:52 11,6 C 9,6 C 93 % 998,3 hPa 0,0 l/m 0 min 2 min 0,0 UV-I 0 W/m 12,9 km/h (3 Bft)
08.03.2013 22:54 11,6 C 9,6 C 93 % 998,3 hPa 0,0 l/m 0 min 2 min 0,0 UV-I 0 W/m 15,4 km/h (3 Bft)
08.03.2013 22:56 11,6 C 9,6 C 93 % 998,3 hPa 0,0 l/m 0 min 2 min 0,0 UV-I 0 W/m 12,9 km/h (3 Bft)
08.03.2013 22:58 11,6 C 9,6 C 93 % 998,3 hPa 0,0 l/m 0 min 2 min 0,0 UV-I 0 W/m 10,3 km/h (2 Bft)
08.03.2013 23:00 11,6 C 9,6 C 93 % 998,3 hPa 0,0 l/m 0 min 2 min 0,0 UV-I 0 W/m 15,4 km/h (3 Bft)
08.03.2013 23:02 11,6 C 9,6 C 93 % 998,3 hPa 0,0 l/m 0 min 2 min 0,0 UV-I 0 W/m 7,7 km/h (2 Bft)
08.03.2013 23:04 11,6 C 9,6 C 93 % 998,3 hPa 0,0 l/m 0 min 2 min 0,0 UV-I 0 W/m 15,4 km/h (3 Bft)
08.03.2013 23:06 11,6 C 9,6 C 93 % 998,3 hPa 0,0 l/m 0 min 2 min 0,0 UV-I 0 W/m 15,4 km/h (3 Bft)
08.03.2013 23:08 11,6 C 9,6 C 94 % 998,3 hPa 0,0 l/m 0 min 0 min 0,0 UV-I 0 W/m 12,9 km/h (3 Bft)
08.03.2013 23:10 11,6 C 9,6 C 94 % 998,3 hPa 0,0 l/m 0 min 2 min 0,0 UV-I 0 W/m 15,4 km/h (3 Bft)
08.03.2013 23:12 11,6 C 9,6 C 94 % 998,3 hPa 0,0 l/m 0 min 0 min 0,0 UV-I 0 W/m 12,9 km/h (3 Bft)
08.03.2013 23:14 11,5 C 9,6 C 93 % 998,3 hPa 0,0 l/m 0 min 0 min 0,0 UV-I 0 W/m 20,6 km/h (4 Bft)
08.03.2013 23:16 11,5 C 9,0 C 93 % 998,3 hPa 0,0 l/m 0 min 0 min 0,0 UV-I 0 W/m 12,9 km/h (3 Bft)
08.03.2013 23:18 11,5 C 9,0 C 94 % 998,3 hPa 0,0 l/m 0 min 0 min 0,0 UV-I 0 W/m 12,9 km/h (3 Bft)
08.03.2013 23:20 11,5 C 9,0 C 94 % 998,2 hPa 0,0 l/m 0 min 0 min 0,0 UV-I 0 W/m 10,3 km/h (2 Bft)
08.03.2013 23:22 11,4 C 9,0 C 94 % 998,2 hPa 0,0 l/m 0 min 0 min 0,0 UV-I 0 W/m 10,3 km/h (2 Bft)
08.03.2013 23:24 11,4 C 9,0 C 94 % 998,2 hPa 0,0 l/m 0 min 0 min 0,0 UV-I 0 W/m 10,3 km/h (2 Bft)
08.03.2013 23:26 11,4 C 9,0 C 94 % 998,2 hPa 0,0 l/m 0 min 0 min 0,0 UV-I 0 W/m 7,7 km/h (2 Bft)
08.03.2013 23:28 11,4 C 9,0 C 94 % 998,2 hPa 0,0 l/m 0 min 0 min 0,0 UV-I 0 W/m 10,3 km/h (2 Bft)
08.03.2013 23:30 11,4 C 9,0 C 94 % 998,2 hPa 0,0 l/m 0 min 0 min 0,0 UV-I 0 W/m 2,6 km/h (1 Bft)
08.03.2013 23:32 11,4 C 9,0 C 94 % 998,2 hPa 0,0 l/m 0 min 0 min 0,0 UV-I 0 W/m 10,3 km/h (2 Bft)
08.03.2013 23:34 11,4 C 9,0 C 94 % 998,2 hPa 0,0 l/m 0 min 0 min 0,0 UV-I 0 W/m 7,7 km/h (2 Bft)
08.03.2013 23:36 11,4 C 9,0 C 94 % 998,2 hPa 0,0 l/m 0 min 0 min 0,0 UV-I 0 W/m 10,3 km/h (2 Bft)
08.03.2013 23:38 11,4 C 9,0 C 94 % 998,1 hPa 0,0 l/m 0 min 0 min 0,0 UV-I 0 W/m 12,9 km/h (3 Bft)
08.03.2013 23:40 11,4 C 9,0 C 94 % 998,1 hPa 0,0 l/m 0 min 0 min 0,0 UV-I 0 W/m 15,4 km/h (3 Bft)
08.03.2013 23:42 11,4 C 9,0 C 94 % 998,1 hPa 0,0 l/m 0 min 0 min 0,0 UV-I 0 W/m 12,9 km/h (3 Bft)
08.03.2013 23:44 11,4 C 9,0 C 94 % 998,1 hPa 0,0 l/m 0 min 0 min 0,0 UV-I 0 W/m 15,4 km/h (3 Bft)
08.03.2013 23:46 11,3 C 9,0 C 94 % 998,0 hPa 0,0 l/m 0 min 0 min 0,0 UV-I 0 W/m 10,3 km/h (2 Bft)
08.03.2013 23:48 11,3 C 9,0 C 94 % 998,1 hPa 0,0 l/m 0 min 0 min 0,0 UV-I 0 W/m 15,4 km/h (3 Bft)
08.03.2013 23:50 11,3 C 9,0 C 94 % 998,1 hPa 0,0 l/m 0 min 0 min 0,0 UV-I 0 W/m 12,9 km/h (3 Bft)
08.03.2013 23:52 11,4 C 9,6 C 94 % 998,0 hPa 0,0 l/m 0 min 0 min 0,0 UV-I 0 W/m 10,3 km/h (2 Bft)
08.03.2013 23:54 11,3 C 9,0 C 94 % 998,1 hPa 0,0 l/m 0 min 0 min 0,0 UV-I 0 W/m 18,0 km/h (3 Bft)
08.03.2013 23:56 11,3 C 9,0 C 94 % 998,1 hPa 0,0 l/m 0 min 0 min 0,0 UV-I 0 W/m 18,0 km/h (3 Bft)
08.03.2013 23:58 11,3 C 9,0 C 94 % 998,1 hPa 0,0 l/m 0 min 0 min 0,0 UV-I 0 W/m 12,9 km/h (3 Bft)
_ Min-Zeit 07:18 06:56 16:00 15:36 - - - - - 00:54
Minimum _ 8,5 C 6,2 C 66 % 996,9 hPa - - - - - 0,0 km/h (0 Bft)
_ Max-Zeit 15:36 15:12 03:08 19:50 08:26 09:48 02:40 13:48 13:52 09:44
Maximum _ 17,4 C 16,8 C 100 % 998,4 hPa 0,2 l/m 2 min 2 min 1,1 UV-I 501 W/m 28,3 km/h
S-SO (4 Bft)
Durchschnitt _ 11,9 C 10,3 C 87 % 997,8 hPa #0,8 l/m #1:14 h #1:52 h 0,7 UV-I 135 W/m 7,4 km/h (2 Bft)
© 2013 W. Hausmann